Observation data for New Home on 11/14/2019      Previous  Date       Current Mesonet Observations  Soil Data  Daily Summary Page  Observations in Plain Language
KNH1 140600Z 35004KT 04/01 A3007 RMK A01 T00360009  RH  083%=      5-min Rain = 0
KNH1 140601Z 36004KT 04/01 A3007 RMK A01 T00350008  RH  083%=      5-min Rain = 0
KNH1 140602Z 00004KT 03/01 A3007 RMK A01 T00340008  RH  083%=      5-min Rain = 0
KNH1 140603Z 36005KT 03/01 A3008 RMK A01 T00340008  RH  084%=      5-min Rain = 0
KNH1 140604Z 36004KT 03/01 A3008 RMK A01 T00330008  RH  084%=      5-min Rain = 0
KNH1 140605Z 00005KT 03/01 A3008 RMK A01 T00330008  RH  084%=      5-min Rain = 0
KNH1 140606Z 35005KT 03/01 A3008 RMK A01 T00320008  RH  084%=      5-min Rain = 0
KNH1 140607Z 36005KT 03/01 A3008 RMK A01 T00320007  RH  084%=      5-min Rain = 0
KNH1 140608Z 36005KT 03/01 A3008 RMK A01 T00310007  RH  084%=      5-min Rain = 0
KNH1 140609Z 00005KT 03/01 A3008 RMK A01 T00300007  RH  085%=      5-min Rain = 0
KNH1 140610Z 36005KT 03/01 A3008 RMK A01 T00300007  RH  085%=      5-min Rain = 0
KNH1 140611Z 00005KT 03/01 A3008 RMK A01 T00290007  RH  085%=      5-min Rain = 0
KNH1 140612Z 00005KT 03/01 A3008 RMK A01 T00300007  RH  085%=      5-min Rain = 0
KNH1 140613Z 36005KT 03/01 A3008 RMK A01 T00300007  RH  085%=      5-min Rain = 0
KNH1 140614Z 00005KT 03/01 A3008 RMK A01 T00300007  RH  085%=      5-min Rain = 0
KNH1 140615Z 00005KT 03/01 A3008 RMK A01 T00310007  RH  085%=      5-min Rain = 0
KNH1 140616Z 36006KT 03/01 A3008 RMK A01 T00300007  RH  085%=      5-min Rain = 0
KNH1 140617Z 00006KT 03/01 A3008 RMK A01 T00300007  RH  085%=      5-min Rain = 0
KNH1 140618Z 00006KT 03/01 A3008 RMK A01 T00300007  RH  085%=      5-min Rain = 0
KNH1 140619Z 00005KT 03/01 A3008 RMK A01 T00300007  RH  085%=      5-min Rain = 0
KNH1 140620Z 36005KT 03/01 A3008 RMK A01 T00300007  RH  085%=      5-min Rain = 0
KNH1 140621Z 36006KT 03/01 A3009 RMK A01 T00290006  RH  085%=      5-min Rain = 0
KNH1 140622Z 36006KT 03/01 A3009 RMK A01 T00290006  RH  085%=      5-min Rain = 0
KNH1 140623Z 35006KT 03/01 A3009 RMK A01 T00280005  RH  085%=      5-min Rain = 0
KNH1 140624Z 35005KT 03/01 A3009 RMK A01 T00270005  RH  085%=      5-min Rain = 0
KNH1 140625Z 35005KT 03/00 A3009 RMK A01 T00270004  RH  085%=      5-min Rain = 0
KNH1 140626Z 35005KT 03/00 A3009 RMK A01 T00260004  RH  085%=      5-min Rain = 0
KNH1 140627Z 35005KT 03/00 A3009 RMK A01 T00250004  RH  086%=      5-min Rain = 0
KNH1 140628Z 35005KT 02/00 A3009 RMK A01 T00240003  RH  086%=      5-min Rain = 0
KNH1 140629Z 35005KT 02/00 A3009 RMK A01 T00240003  RH  086%=      5-min Rain = 0
KNH1 140630Z 35005KT 02/00 A3009 RMK A01 T00230003  RH  087%=      5-min Rain = 0
KNH1 140631Z 35005KT 02/00 A3009 RMK A01 T00230004  RH  087%=      5-min Rain = 0
KNH1 140632Z 35005KT 02/00 A3009 RMK A01 T00230004  RH  087%=      5-min Rain = 0
KNH1 140633Z 35005KT 02/00 A3009 RMK A01 T00230004  RH  087%=      5-min Rain = 0
KNH1 140634Z 35005KT 02/00 A3009 RMK A01 T00230004  RH  087%=      5-min Rain = 0
KNH1 140635Z 35005KT 02/00 A3009 RMK A01 T00230004  RH  087%=      5-min Rain = 0
KNH1 140636Z 35005KT 02/00 A3009 RMK A01 T00230004  RH  087%=      5-min Rain = 0
KNH1 140637Z 36005KT 02/00 A301 RMK A01 T00230004  RH  087%=      5-min Rain = 0
KNH1 140638Z 36005KT 02/00 A301 RMK A01 T00230004  RH  087%=      5-min Rain = 0
KNH1 140639Z 35005KT 02/01 A301 RMK A01 T00230005  RH  088%=      5-min Rain = 0
KNH1 140640Z 35005KT 02/01 A301 RMK A01 T00240005  RH  088%=      5-min Rain = 0
KNH1 140641Z 36005KT 02/01 A301 RMK A01 T00240006  RH  088%=      5-min Rain = 0
KNH1 140642Z 35005KT 02/01 A301 RMK A01 T00240005  RH  087%=      5-min Rain = 0
KNH1 140643Z 35005KT 03/01 A301 RMK A01 T00250005  RH  087%=      5-min Rain = 0
KNH1 140644Z 35006KT 02/01 A301 RMK A01 T00240005  RH  087%=      5-min Rain = 0
KNH1 140645Z 34006KT 02/01 A301 RMK A01 T00240005  RH  087%=      5-min Rain = 0
KNH1 140646Z 35006KT 02/01 A301 RMK A01 T00240005  RH  087%=      5-min Rain = 0
KNH1 140647Z 35005KT 02/01 A301 RMK A01 T00240005  RH  087%=      5-min Rain = 0
KNH1 140648Z 35006KT 02/00 A301 RMK A01 T00240004  RH  087%=      5-min Rain = 0
KNH1 140649Z 35006KT 02/00 A301 RMK A01 T00240004  RH  087%=      5-min Rain = 0
KNH1 140650Z 35006KT 02/00 A301 RMK A01 T00240004  RH  087%=      5-min Rain = 0
KNH1 140651Z 36005KT 02/01 A301 RMK A01 T00240005  RH  087%=      5-min Rain = 0
KNH1 140652Z 35006KT 02/01 A301 RMK A01 T00240005  RH  087%=      5-min Rain = 0
KNH1 140653Z 35005KT 03/01 A3011 RMK A01 T00250005  RH  087%=      5-min Rain = 0
KNH1 140654Z 36006KT 03/01 A3011 RMK A01 T00250005  RH  087%=      5-min Rain = 0
KNH1 140655Z 36006KT 03/01 A3011 RMK A01 T00250005  RH  087%=      5-min Rain = 0
KNH1 140656Z 36006KT 02/01 A3011 RMK A01 T00240005  RH  087%=      5-min Rain = 0
KNH1 140657Z 36006KT 02/01 A3011 RMK A01 T00240005  RH  087%=      5-min Rain = 0
KNH1 140658Z 36006KT 03/01 A3011 RMK A01 T00250005  RH  087%=      5-min Rain = 0
KNH1 140659Z 00006KT 03/01 A3011 RMK A01 T00250006  RH  087%=      5-min Rain = 0
KNH1 140700Z 01006KT 03/01 A3011 RMK A01 T00260006  RH  086%=      5-min Rain = 0
KNH1 140701Z 00006KT 03/01 A3011 RMK A01 T00270006  RH  086%=      5-min Rain = 0
KNH1 140702Z 00006KT 03/01 A3011 RMK A01 T00280005  RH  085%=      5-min Rain = 0
KNH1 140703Z 00006KT 03/01 A3011 RMK A01 T00280005  RH  085%=      5-min Rain = 0
KNH1 140704Z 00006KT 03/01 A3011 RMK A01 T00280005  RH  085%=      5-min Rain = 0
KNH1 140705Z 00006KT 03/01 A3011 RMK A01 T00290005  RH  084%=      5-min Rain = 0
KNH1 140706Z 00007KT 03/01 A3011 RMK A01 T00290005  RH  084%=      5-min Rain = 0
KNH1 140707Z 36006KT 03/01 A3011 RMK A01 T00290005  RH  084%=      5-min Rain = 0
KNH1 140708Z 00007KT 03/01 A3011 RMK A01 T00290005  RH  084%=      5-min Rain = 0
KNH1 140709Z 00006KT 03/01 A3011 RMK A01 T00290005  RH  084%=      5-min Rain = 0
KNH1 140710Z 00006KT 03/01 A3011 RMK A01 T00290005  RH  084%=      5-min Rain = 0
KNH1 140711Z 00006KT 03/01 A3011 RMK A01 T00290005  RH  084%=      5-min Rain = 0
KNH1 140712Z 36006KT 03/01 A3011 RMK A01 T00290005  RH  084%=      5-min Rain = 0
KNH1 140713Z 36006KT 03/01 A3011 RMK A01 T00300005  RH  084%=      5-min Rain = 0
KNH1 140714Z 36005KT 03/00 A3011 RMK A01 T00290004  RH  084%=      5-min Rain = 0
KNH1 140715Z 35006KT 03/00 A3011 RMK A01 T00280004  RH  084%=      5-min Rain = 0
KNH1 140716Z 35005KT 03/00 A3011 RMK A01 T00270003  RH  084%=      5-min Rain = 0
KNH1 140717Z 35005KT 03/00 A3011 RMK A01 T00260003  RH  085%=      5-min Rain = 0
KNH1 140718Z 35004KT 03/00 A3011 RMK A01 T00250003  RH  085%=      5-min Rain = 0
KNH1 140719Z 34004KT 02/00 A3011 RMK A01 T00240002  RH  085%=      5-min Rain = 0
KNH1 140720Z 35004KT 02/00 A3012 RMK A01 T00240002  RH  086%=      5-min Rain = 0
KNH1 140721Z 35004KT 02/00 A3012 RMK A01 T00240002  RH  086%=      5-min Rain = 0
KNH1 140722Z 35004KT 02/00 A3012 RMK A01 T00230002  RH  086%=      5-min Rain = 0
KNH1 140723Z 35004KT 02/00 A3012 RMK A01 T00230002  RH  086%=      5-min Rain = 0
KNH1 140724Z 35004KT 02/00 A3012 RMK A01 T00220002  RH  087%=      5-min Rain = 0
KNH1 140725Z 35005KT 02/00 A3012 RMK A01 T00210002  RH  087%=      5-min Rain = 0
KNH1 140726Z 35005KT 02/00 A3012 RMK A01 T00210001  RH  087%=      5-min Rain = 0
KNH1 140727Z 36005KT 02/00 A3012 RMK A01 T00200001  RH  087%=      5-min Rain = 0
KNH1 140728Z 35004KT 02/00 A3012 RMK A01 T00200001  RH  088%=      5-min Rain = 0
KNH1 140729Z 35005KT 02/00 A3012 RMK A01 T00200002  RH  088%=      5-min Rain = 0
KNH1 140730Z 36005KT 02/00 A3012 RMK A01 T00190001  RH  088%=      5-min Rain = 0
KNH1 140731Z 35005KT 02/00 A3012 RMK A01 T00190001  RH  088%=      5-min Rain = 0
KNH1 140732Z 35004KT 02/00 A3012 RMK A01 T00190001  RH  088%=      5-min Rain = 0
KNH1 140733Z 35004KT 02/00 A3012 RMK A01 T00180000  RH  088%=      5-min Rain = 0
KNH1 140734Z 35004KT 02/00 A3012 RMK A01 T00180000  RH  088%=      5-min Rain = 0
KNH1 140735Z 35004KT 02/00 A3012 RMK A01 T001800-0  RH  088%=      5-min Rain = 0
KNH1 140736Z 35004KT 02/00 A3012 RMK A01 T001700-0  RH  088%=      5-min Rain = 0
KNH1 140737Z 36004KT 02/00 A3012 RMK A01 T001700-0  RH  088%=      5-min Rain = 0
KNH1 140738Z 00004KT 02/M00 A3012 RMK A01 T00161001  RH  088%=      5-min Rain = 0
KNH1 140739Z 00004KT 02/M00 A3012 RMK A01 T00161001  RH  089%=      5-min Rain = 0
KNH1 140740Z 00005KT 02/00 A3012 RMK A01 T001600-0  RH  089%=      5-min Rain = 0
KNH1 140741Z 00004KT 02/00 A3012 RMK A01 T001600-0  RH  089%=      5-min Rain = 0
KNH1 140742Z 00005KT 02/M00 A3012 RMK A01 T00161001  RH  089%=      5-min Rain = 0
KNH1 140743Z 00005KT 02/M00 A3012 RMK A01 T00161001  RH  089%=      5-min Rain = 0
KNH1 140744Z 00005KT 02/00 A3012 RMK A01 T001700-0  RH  089%=      5-min Rain = 0
KNH1 140745Z 00005KT 02/00 A3012 RMK A01 T001700-0  RH  088%=      5-min Rain = 0
KNH1 140746Z 36005KT 02/00 A3012 RMK A01 T001700-0  RH  088%=      5-min Rain = 0
KNH1 140747Z 35005KT 02/M00 A3013 RMK A01 T00171001  RH  088%=      5-min Rain = 0
KNH1 140748Z 36005KT 02/M00 A3013 RMK A01 T00171001  RH  088%=      5-min Rain = 0
KNH1 140749Z 36005KT 02/M00 A3013 RMK A01 T00161002  RH  088%=      5-min Rain = 0
KNH1 140750Z 36005KT 02/M00 A3013 RMK A01 T00161002  RH  088%=      5-min Rain = 0
KNH1 140751Z 36005KT 02/M00 A3013 RMK A01 T00161001  RH  088%=      5-min Rain = 0
KNH1 140752Z 36005KT 02/M00 A3013 RMK A01 T00151002  RH  088%=      5-min Rain = 0
KNH1 140753Z 36005KT 02/M00 A3013 RMK A01 T00151002  RH  088%=      5-min Rain = 0
KNH1 140754Z 36005KT 02/M00 A3013 RMK A01 T00151002  RH  088%=      5-min Rain = 0
KNH1 140755Z 36005KT 02/M00 A3013 RMK A01 T00151002  RH  088%=      5-min Rain = 0
KNH1 140756Z 35004KT 02/M00 A3013 RMK A01 T00151002  RH  088%=      5-min Rain = 0
KNH1 140757Z 36004KT 02/M00 A3013 RMK A01 T00151002  RH  088%=      5-min Rain = 0
KNH1 140758Z 35004KT 02/M00 A3013 RMK A01 T00151002  RH  088%=      5-min Rain = 0
KNH1 140759Z 35005KT 02/M00 A3013 RMK A01 T00151002  RH  088%=      5-min Rain = 0
KNH1 140800Z 35005KT 02/M00 A3013 RMK A01 T00151003  RH  088%=      5-min Rain = 0
KNH1 140801Z 35005KT 02/M00 A3013 RMK A01 T00151003  RH  088%=      5-min Rain = 0
KNH1 140802Z 35005KT 01/M00 A3013 RMK A01 T00141003  RH  088%=      5-min Rain = 0
KNH1 140803Z 35005KT 01/M00 A3013 RMK A01 T00141002  RH  089%=      5-min Rain = 0
KNH1 140804Z 35005KT 01/M00 A3013 RMK A01 T00141003  RH  089%=      5-min Rain = 0
KNH1 140805Z 36005KT 01/M00 A3014 RMK A01 T00131003  RH  089%=      5-min Rain = 0
KNH1 140806Z 35005KT 01/M00 A3014 RMK A01 T00131003  RH  089%=      5-min Rain = 0
KNH1 140807Z 36005KT 01/M00 A3014 RMK A01 T00131003  RH  089%=      5-min Rain = 0
KNH1 140808Z 36005KT 01/M00 A3014 RMK A01 T00131003  RH  089%=      5-min Rain = 0
KNH1 140809Z 36005KT 01/M00 A3014 RMK A01 T00131003  RH  089%=      5-min Rain = 0
KNH1 140810Z 36005KT 01/M00 A3014 RMK A01 T00131003  RH  089%=      5-min Rain = 0
KNH1 140811Z 36005KT 01/M00 A3014 RMK A01 T00121003  RH  089%=      5-min Rain = 0
KNH1 140812Z 00006KT 01/M00 A3014 RMK A01 T00131003  RH  089%=      5-min Rain = 0
KNH1 140813Z 01006KT 01/M00 A3014 RMK A01 T00131003  RH  089%=      5-min Rain = 0
KNH1 140814Z 00005KT 01/M00 A3014 RMK A01 T00131003  RH  089%=      5-min Rain = 0
KNH1 140815Z 00005KT 01/M00 A3014 RMK A01 T00141002  RH  089%=      5-min Rain = 0
KNH1 140816Z 00006KT 02/M00 A3014 RMK A01 T00151003  RH  088%=      5-min Rain = 0
KNH1 140817Z 00006KT 02/M00 A3014 RMK A01 T00151003  RH  088%=      5-min Rain = 0
KNH1 140818Z 00006KT 02/M00 A3014 RMK A01 T00161003  RH  088%=      5-min Rain = 0
KNH1 140819Z 00006KT 02/M00 A3014 RMK A01 T00151003  RH  087%=      5-min Rain = 0
KNH1 140820Z 00006KT 02/M00 A3014 RMK A01 T00151004  RH  087%=      5-min Rain = 0
KNH1 140821Z 00006KT 01/M01 A3014 RMK A01 T00141005  RH  087%=      5-min Rain = 0
KNH1 140822Z 00006KT 01/M01 A3014 RMK A01 T00141005  RH  087%=      5-min Rain = 0
KNH1 140823Z 00006KT 01/M01 A3014 RMK A01 T00131005  RH  087%=      5-min Rain = 0
KNH1 140824Z 00007KT 01/M01 A3014 RMK A01 T00131005  RH  088%=      5-min Rain = 0
KNH1 140825Z 00006KT 01/M01 A3014 RMK A01 T00131005  RH  088%=      5-min Rain = 0
KNH1 140826Z 00007KT 01/M01 A3014 RMK A01 T00131005  RH  088%=      5-min Rain = 0
KNH1 140827Z 01007KT 01/M01 A3014 RMK A01 T00131005  RH  088%=      5-min Rain = 0
KNH1 140828Z 01006KT 01/M00 A3014 RMK A01 T00141004  RH  088%=      5-min Rain = 0
KNH1 140829Z 01007KT 02/M00 A3014 RMK A01 T00151004  RH  088%=      5-min Rain = 0
KNH1 140830Z 01007KT 02/M00 A3014 RMK A01 T00171003  RH  087%=      5-min Rain = 0
KNH1 140831Z 01007KT 02/M00 A3014 RMK A01 T00181003  RH  086%=      5-min Rain = 0
KNH1 140832Z 01007KT 02/M00 A3014 RMK A01 T00191004  RH  085%=      5-min Rain = 0
KNH1 140833Z 01006KT 02/M00 A3015 RMK A01 T00201003  RH  085%=      5-min Rain = 0
KNH1 140834Z 01006KT 02/M00 A3015 RMK A01 T00211003  RH  084%=      5-min Rain = 0
KNH1 140835Z 00007KT 02/M00 A3015 RMK A01 T00221003  RH  084%=      5-min Rain = 0
KNH1 140836Z 01006KT 02/M00 A3015 RMK A01 T00221004  RH  083%=      5-min Rain = 0
KNH1 140837Z 00006KT 02/M00 A3015 RMK A01 T00221004  RH  083%=      5-min Rain = 0
KNH1 140838Z 00007KT 02/M00 A3015 RMK A01 T00221004  RH  083%=      5-min Rain = 0
KNH1 140839Z 00006KT 02/M00 A3015 RMK A01 T00221004  RH  083%=      5-min Rain = 0
KNH1 140840Z 00007KT 02/M00 A3015 RMK A01 T00211004  RH  083%=      5-min Rain = 0
KNH1 140841Z 00006KT 02/M01 A3015 RMK A01 T00201005  RH  084%=      5-min Rain = 0
KNH1 140842Z 00007KT 02/M01 A3015 RMK A01 T00191005  RH  084%=      5-min Rain = 0
KNH1 140843Z 00006KT 02/M01 A3015 RMK A01 T00181006  RH  084%=      5-min Rain = 0
KNH1 140844Z 00006KT 02/M01 A3015 RMK A01 T00181005  RH  085%=      5-min Rain = 0
KNH1 140845Z 00006KT 02/M01 A3015 RMK A01 T00171005  RH  085%=      5-min Rain = 0
KNH1 140846Z 00006KT 02/M01 A3015 RMK A01 T00171006  RH  085%=      5-min Rain = 0
KNH1 140847Z 00006KT 02/M01 A3015 RMK A01 T00171006  RH  085%=      5-min Rain = 0
KNH1 140848Z 00006KT 02/M01 A3015 RMK A01 T00171005  RH  085%=      5-min Rain = 0
KNH1 140849Z 01006KT 02/M01 A3015 RMK A01 T00171006  RH  085%=      5-min Rain = 0
KNH1 140850Z 01006KT 02/M01 A3016 RMK A01 T00171006  RH  085%=      5-min Rain = 0
KNH1 140851Z 00007KT 02/M01 A3016 RMK A01 T00171006  RH  085%=      5-min Rain = 0
KNH1 140852Z 00007KT 02/M01 A3016 RMK A01 T00171006  RH  085%=      5-min Rain = 0
KNH1 140853Z 01007KT 02/M01 A3016 RMK A01 T00181005  RH  084%=      5-min Rain = 0
KNH1 140854Z 01008KT 02/M01 A3016 RMK A01 T00191005  RH  084%=      5-min Rain = 0
KNH1 140855Z 01006KT 02/M01 A3016 RMK A01 T00211005  RH  083%=      5-min Rain = 0
KNH1 140856Z 01006KT 02/M01 A3016 RMK A01 T00231006  RH  082%=      5-min Rain = 0
KNH1 140857Z 01006KT 02/M01 A3016 RMK A01 T00231006  RH  081%=      5-min Rain = 0
KNH1 140858Z 01007KT 02/M01 A3016 RMK A01 T00241006  RH  081%=      5-min Rain = 0
KNH1 140859Z 02005KT 02/M01 A3016 RMK A01 T00241007  RH  080%=      5-min Rain = 0
KNH1 140900Z 01007KT 02/M01 A3016 RMK A01 T00241007  RH  080%=      5-min Rain = 0
KNH1 140901Z 02006KT 02/M01 A3016 RMK A01 T00241006  RH  080%=      5-min Rain = 0
KNH1 140902Z 01006KT 02/M01 A3016 RMK A01 T00241007  RH  080%=      5-min Rain = 0
KNH1 140903Z 02006KT 02/M01 A3016 RMK A01 T00231007  RH  081%=      5-min Rain = 0
KNH1 140904Z 02005KT 02/M01 A3016 RMK A01 T00231007  RH  081%=      5-min Rain = 0
KNH1 140905Z 01006KT 02/M01 A3016 RMK A01 T00221007  RH  081%=      5-min Rain = 0
KNH1 140906Z 01007KT 02/M01 A3016 RMK A01 T00221007  RH  081%=      5-min Rain = 0
KNH1 140907Z 01006KT 02/M01 A3016 RMK A01 T00221007  RH  081%=      5-min Rain = 0
KNH1 140908Z 01006KT 02/M01 A3016 RMK A01 T00221007  RH  081%=      5-min Rain = 0
KNH1 140909Z 01006KT 02/M01 A3016 RMK A01 T00221008  RH  081%=      5-min Rain = 0
KNH1 140910Z 01005KT 02/M01 A3016 RMK A01 T00221007  RH  081%=      5-min Rain = 0
KNH1 140911Z 01006KT 02/M01 A3016 RMK A01 T00221008  RH  081%=      5-min Rain = 0
KNH1 140912Z 02005KT 02/M01 A3016 RMK A01 T00221008  RH  081%=      5-min Rain = 0
KNH1 140913Z 01005KT 02/M01 A3016 RMK A01 T00211008  RH  081%=      5-min Rain = 0
KNH1 140914Z 02005KT 02/M01 A3016 RMK A01 T00211008  RH  081%=      5-min Rain = 0
KNH1 140915Z 02006KT 02/M01 A3016 RMK A01 T00211008  RH  081%=      5-min Rain = 0
KNH1 140916Z 02006KT 02/M01 A3017 RMK A01 T00211008  RH  081%=      5-min Rain = 0
KNH1 140917Z 02006KT 02/M01 A3017 RMK A01 T00211008  RH  081%=      5-min Rain = 0
KNH1 140918Z 02005KT 02/M01 A3017 RMK A01 T00211008  RH  081%=      5-min Rain = 0
KNH1 140919Z 02005KT 02/M01 A3017 RMK A01 T00201008  RH  082%=      5-min Rain = 0
KNH1 140920Z 02006KT 02/M01 A3017 RMK A01 T00201008  RH  082%=      5-min Rain = 0
KNH1 140921Z 02005KT 02/M01 A3017 RMK A01 T00191008  RH  082%=      5-min Rain = 0
KNH1 140922Z 02005KT 02/M01 A3017 RMK A01 T00191008  RH  082%=      5-min Rain = 0
KNH1 140923Z 01005KT 02/M01 A3017 RMK A01 T00191008  RH  082%=      5-min Rain = 0
KNH1 140924Z 02006KT 02/M01 A3017 RMK A01 T00191009  RH  082%=      5-min Rain = 0
KNH1 140925Z 02005KT 02/M01 A3017 RMK A01 T00191009  RH  082%=      5-min Rain = 0
KNH1 140926Z 01005KT 02/M01 A3017 RMK A01 T00191009  RH  082%=      5-min Rain = 0
KNH1 140927Z 01006KT 02/M01 A3017 RMK A01 T00191009  RH  082%=      5-min Rain = 0
KNH1 140928Z 02006KT 02/M01 A3017 RMK A01 T00201008  RH  082%=      5-min Rain = 0
KNH1 140929Z 02006KT 02/M01 A3017 RMK A01 T00201008  RH  081%=      5-min Rain = 0
KNH1 140930Z 01006KT 02/M01 A3017 RMK A01 T00211008  RH  081%=      5-min Rain = 0
KNH1 140931Z 01006KT 02/M01 A3017 RMK A01 T00211009  RH  081%=      5-min Rain = 0
KNH1 140932Z 01007KT 02/M01 A3017 RMK A01 T00211009  RH  081%=      5-min Rain = 0
KNH1 140933Z 01007KT 02/M01 A3017 RMK A01 T00211009  RH  081%=      5-min Rain = 0
KNH1 140934Z 01006KT 02/M01 A3017 RMK A01 T00211009  RH  080%=      5-min Rain = 0
KNH1 140935Z 01006KT 02/M01 A3017 RMK A01 T00211009  RH  080%=      5-min Rain = 0
KNH1 140936Z 01006KT 02/M01 A3017 RMK A01 T00211009  RH  081%=      5-min Rain = 0
KNH1 140937Z 01005KT 02/M01 A3017 RMK A01 T00211009  RH  080%=      5-min Rain = 0
KNH1 140938Z 01006KT 02/M01 A3018 RMK A01 T00211009  RH  080%=      5-min Rain = 0
KNH1 140939Z 01005KT 02/M01 A3018 RMK A01 T00221009  RH  080%=      5-min Rain = 0
KNH1 140940Z 01006KT 02/M01 A3018 RMK A01 T00211010  RH  080%=      5-min Rain = 0
KNH1 140941Z 01006KT 02/M01 A3018 RMK A01 T00211010  RH  080%=      5-min Rain = 0
KNH1 140942Z 01006KT 02/M01 A3018 RMK A01 T00211010  RH  080%=      5-min Rain = 0
KNH1 140943Z 01006KT 02/M01 A3018 RMK A01 T00211010  RH  080%=      5-min Rain = 0
KNH1 140944Z 01006KT 02/M01 A3018 RMK A01 T00211010  RH  080%=      5-min Rain = 0
KNH1 140945Z 01006KT 02/M01 A3018 RMK A01 T00211010  RH  080%=      5-min Rain = 0
KNH1 140946Z 01006KT 02/M01 A3017 RMK A01 T00221010  RH  079%=      5-min Rain = 0
KNH1 140947Z 01005KT 02/M01 A3017 RMK A01 T00211010  RH  080%=      5-min Rain = 0
KNH1 140948Z 01006KT 02/M01 A3017 RMK A01 T00211010  RH  080%=      5-min Rain = 0
KNH1 140949Z 01006KT 02/M01 A3017 RMK A01 T00211010  RH  080%=      5-min Rain = 0
KNH1 140950Z 01006KT 02/M01 A3017 RMK A01 T00201010  RH  080%=      5-min Rain = 0
KNH1 140951Z 01006KT 02/M01 A3017 RMK A01 T00201010  RH  080%=      5-min Rain = 0
KNH1 140952Z 01006KT 02/M01 A3018 RMK A01 T00201011  RH  080%=      5-min Rain = 0
KNH1 140953Z 01006KT 02/M01 A3017 RMK A01 T00201010  RH  081%=      5-min Rain = 0
KNH1 140954Z 01008KT 02/M01 A3018 RMK A01 T00201010  RH  080%=      5-min Rain = 0
KNH1 140955Z 01007KT 02/M01 A3018 RMK A01 T00211010  RH  080%=      5-min Rain = 0
KNH1 140956Z 01007KT 02/M01 A3018 RMK A01 T00221010  RH  079%=      5-min Rain = 0
KNH1 140957Z 01006KT 02/M01 A3018 RMK A01 T00231010  RH  079%=      5-min Rain = 0
KNH1 140958Z 01007KT 02/M01 A3018 RMK A01 T00231011  RH  079%=      5-min Rain = 0
KNH1 140959Z 01006KT 02/M01 A3018 RMK A01 T00231011  RH  079%=      5-min Rain = 0
KNH1 141000Z 01006KT 02/M01 A3018 RMK A01 T00231011  RH  079%=      5-min Rain = 0
KNH1 141001Z 01006KT 02/M01 A3018 RMK A01 T00231011  RH  079%=      5-min Rain = 0
KNH1 141002Z 01006KT 02/M01 A3018 RMK A01 T00221011  RH  079%=      5-min Rain = 0
KNH1 141003Z 01006KT 02/M01 A3018 RMK A01 T00221012  RH  078%=      5-min Rain = 0
KNH1 141004Z 02006KT 02/M01 A3018 RMK A01 T00221012  RH  078%=      5-min Rain = 0
KNH1 141005Z 02006KT 02/M01 A3018 RMK A01 T00221012  RH  078%=      5-min Rain = 0
KNH1 141006Z 01006KT 02/M01 A3018 RMK A01 T00221012  RH  078%=      5-min Rain = 0
KNH1 141007Z 01006KT 02/M01 A3018 RMK A01 T00221012  RH  078%=      5-min Rain = 0
KNH1 141008Z 01007KT 02/M01 A3018 RMK A01 T00221012  RH  078%=      5-min Rain = 0
KNH1 141009Z 01006KT 02/M01 A3018 RMK A01 T00221012  RH  078%=      5-min Rain = 0
KNH1 141010Z 01006KT 02/M01 A3018 RMK A01 T00221012  RH  078%=      5-min Rain = 0
KNH1 141011Z 01006KT 02/M01 A3018 RMK A01 T00211012  RH  079%=      5-min Rain = 0
KNH1 141012Z 02006KT 02/M01 A3018 RMK A01 T00211012  RH  078%=      5-min Rain = 0
KNH1 141013Z 02006KT 02/M01 A3018 RMK A01 T00221012  RH  079%=      5-min Rain = 0
KNH1 141014Z 01006KT 02/M01 A3018 RMK A01 T00201012  RH  079%=      5-min Rain = 0
KNH1 141015Z 01007KT 02/M01 A3018 RMK A01 T00201013  RH  079%=      5-min Rain = 0
KNH1 141016Z 01008KT 02/M01 A3018 RMK A01 T00201013  RH  079%=      5-min Rain = 0
KNH1 141017Z 01007KT 02/M01 A3018 RMK A01 T00201013  RH  079%=      5-min Rain = 0
KNH1 141018Z 01006KT 02/M01 A3018 RMK A01 T00201013  RH  079%=      5-min Rain = 0
KNH1 141019Z 01007KT 02/M01 A3018 RMK A01 T00191013  RH  079%=      5-min Rain = 0
KNH1 141020Z 01007KT 02/M01 A3018 RMK A01 T00191013  RH  079%=      5-min Rain = 0
KNH1 141021Z 01008KT 02/M01 A3018 RMK A01 T00191014  RH  079%=      5-min Rain = 0
KNH1 141022Z 01008KT 02/M01 A3018 RMK A01 T00191014  RH  079%=      5-min Rain = 0
KNH1 141023Z 01008KT 02/M01 A3018 RMK A01 T00191014  RH  079%=      5-min Rain = 0
KNH1 141024Z 01008KT 02/M01 A3018 RMK A01 T00201014  RH  078%=      5-min Rain = 0
KNH1 141025Z 01008KT 02/M01 A3018 RMK A01 T00201014  RH  078%=      5-min Rain = 0
KNH1 141026Z 01007KT 02/M01 A3018 RMK A01 T00201014  RH  078%=      5-min Rain = 0
KNH1 141027Z 01007KT 02/M01 A3018 RMK A01 T00201014  RH  078%=      5-min Rain = 0
KNH1 141028Z 01007KT 02/M01 A3018 RMK A01 T00201014  RH  078%=      5-min Rain = 0
KNH1 141029Z 02006KT 02/M02 A3018 RMK A01 T00201015  RH  078%=      5-min Rain = 0
KNH1 141030Z 01006KT 02/M02 A3018 RMK A01 T00201015  RH  078%=      5-min Rain = 0
KNH1 141031Z 01007KT 02/M02 A3018 RMK A01 T00201015  RH  078%=      5-min Rain = 0
KNH1 141032Z 01006KT 02/M02 A3018 RMK A01 T00201015  RH  078%=      5-min Rain = 0
KNH1 141033Z 01006KT 02/M02 A3018 RMK A01 T00201015  RH  078%=      5-min Rain = 0
KNH1 141034Z 01006KT 02/M02 A3018 RMK A01 T00211015  RH  077%=      5-min Rain = 0
KNH1 141035Z 01007KT 02/M01 A3019 RMK A01 T00211014  RH  077%=      5-min Rain = 0
KNH1 141036Z 01007KT 02/M02 A3019 RMK A01 T00211015  RH  077%=      5-min Rain = 0
KNH1 141037Z 01007KT 02/M01 A3019 RMK A01 T00211014  RH  077%=      5-min Rain = 0
KNH1 141038Z 01007KT 02/M02 A3019 RMK A01 T00211015  RH  077%=      5-min Rain = 0
KNH1 141039Z 01006KT 02/M02 A3019 RMK A01 T00201015  RH  077%=      5-min Rain = 0
KNH1 141040Z 01007KT 02/M02 A3019 RMK A01 T00201015  RH  078%=      5-min Rain = 0
KNH1 141041Z 01006KT 02/M02 A3019 RMK A01 T00201015  RH  077%=      5-min Rain = 0
KNH1 141042Z 01006KT 02/M02 A3019 RMK A01 T00201015  RH  077%=      5-min Rain = 0
KNH1 141043Z 01006KT 02/M02 A3019 RMK A01 T00201015  RH  078%=      5-min Rain = 0
KNH1 141044Z 01006KT 02/M02 A3019 RMK A01 T00201015  RH  078%=      5-min Rain = 0
KNH1 141045Z 01007KT 02/M02 A3019 RMK A01 T00191015  RH  078%=      5-min Rain = 0
KNH1 141046Z 01007KT 02/M02 A3019 RMK A01 T00191015  RH  078%=      5-min Rain = 0
KNH1 141047Z 01007KT 02/M02 A3019 RMK A01 T00191016  RH  078%=      5-min Rain = 0
KNH1 141048Z 02007KT 02/M02 A3019 RMK A01 T00181016  RH  078%=      5-min Rain = 0
KNH1 141049Z 01006KT 02/M02 A3019 RMK A01 T00181016  RH  078%=      5-min Rain = 0
KNH1 141050Z 02006KT 02/M02 A3019 RMK A01 T00181016  RH  078%=      5-min Rain = 0
KNH1 141051Z 02006KT 02/M02 A3019 RMK A01 T00171016  RH  079%=      5-min Rain = 0
KNH1 141052Z 01005KT 02/M02 A3019 RMK A01 T00171016  RH  078%=      5-min Rain = 0
KNH1 141053Z 02005KT 02/M02 A3019 RMK A01 T00171016  RH  078%=      5-min Rain = 0
KNH1 141054Z 02005KT 02/M02 A3019 RMK A01 T00161017  RH  079%=      5-min Rain = 0
KNH1 141055Z 02006KT 02/M02 A3019 RMK A01 T00161016  RH  079%=      5-min Rain = 0
KNH1 141056Z 02006KT 02/M02 A3019 RMK A01 T00161017  RH  079%=      5-min Rain = 0
KNH1 141057Z 02006KT 02/M02 A3019 RMK A01 T00161017  RH  079%=      5-min Rain = 0
KNH1 141058Z 02006KT 02/M02 A3019 RMK A01 T00171017  RH  078%=      5-min Rain = 0
KNH1 141059Z 02007KT 02/M02 A3019 RMK A01 T00161017  RH  079%=      5-min Rain = 0
KNH1 141100Z 02007KT 02/M02 A3019 RMK A01 T00161017  RH  079%=      5-min Rain = 0
KNH1 141101Z 03008KT 02/M02 A3019 RMK A01 T00171017  RH  078%=      5-min Rain = 0
KNH1 141102Z 02008KT 02/M02 A3019 RMK A01 T00181017  RH  078%=      5-min Rain = 0
KNH1 141103Z 03008KT 02/M02 A3019 RMK A01 T00191017  RH  077%=      5-min Rain = 0
KNH1 141104Z 03008KT 02/M02 A3019 RMK A01 T00201017  RH  076%=      5-min Rain = 0
KNH1 141105Z 02009KT 02/M02 A3019 RMK A01 T00211018  RH  076%=      5-min Rain = 0
KNH1 141106Z 03008KT 02/M02 A3019 RMK A01 T00231018  RH  075%=      5-min Rain = 0
KNH1 141107Z 03008KT 02/M02 A3019 RMK A01 T00241018  RH  074%=      5-min Rain = 0
KNH1 141108Z 03008KT 03/M02 A3019 RMK A01 T00251019  RH  073%=      5-min Rain = 0
KNH1 141109Z 03009KT 03/M02 A3019 RMK A01 T00251019  RH  072%=      5-min Rain = 0
KNH1 141110Z 04008KT 03/M02 A3019 RMK A01 T00261019  RH  072%=      5-min Rain = 0
KNH1 141111Z 03008KT 03/M02 A3019 RMK A01 T00261019  RH  072%=      5-min Rain = 0
KNH1 141112Z 03007KT 03/M02 A3019 RMK A01 T00261019  RH  072%=      5-min Rain = 0
KNH1 141113Z 03009KT 03/M02 A3019 RMK A01 T00271019  RH  072%=      5-min Rain = 0
KNH1 141114Z 03009KT 03/M02 A3019 RMK A01 T00271019  RH  071%=      5-min Rain = 0
KNH1 141115Z 03007KT 03/M02 A3019 RMK A01 T00281020  RH  071%=      5-min Rain = 0
KNH1 141116Z 03008KT 03/M02 A3019 RMK A01 T00291020  RH  070%=      5-min Rain = 0
KNH1 141117Z 03009KT 03/M02 A3019 RMK A01 T00291020  RH  070%=      5-min Rain = 0
KNH1 141118Z 03008KT 03/M02 A302 RMK A01 T00291020  RH  070%=      5-min Rain = 0
KNH1 141119Z 03009KT 03/M02 A302 RMK A01 T00281020  RH  071%=      5-min Rain = 0
KNH1 141120Z 03009KT 03/M02 A302 RMK A01 T00281020  RH  070%=      5-min Rain = 0
KNH1 141121Z 03007KT 03/M02 A302 RMK A01 T00281021  RH  070%=      5-min Rain = 0
KNH1 141122Z 03008KT 03/M02 A302 RMK A01 T00281021  RH  070%=      5-min Rain = 0
KNH1 141123Z 03010KT 03/M02 A302 RMK A01 T00281021  RH  070%=      5-min Rain = 0
KNH1 141124Z 04009KT 03/M02 A302 RMK A01 T00281021  RH  070%=      5-min Rain = 0
KNH1 141125Z 04009KT 03/M02 A302 RMK A01 T00281021  RH  070%=      5-min Rain = 0
KNH1 141126Z 03010KT 03/M02 A302 RMK A01 T00281021  RH  070%=      5-min Rain = 0
KNH1 141127Z 03007KT 03/M02 A302 RMK A01 T00271021  RH  070%=      5-min Rain = 0
KNH1 141128Z 04009KT 03/M02 A302 RMK A01 T00271021  RH  071%=      5-min Rain = 0
KNH1 141129Z 04008KT 03/M02 A302 RMK A01 T00261021  RH  071%=      5-min Rain = 0
KNH1 141130Z 04009KT 03/M02 A302 RMK A01 T00261022  RH  071%=      5-min Rain = 0
KNH1 141131Z 04008KT 03/M02 A3021 RMK A01 T00261021  RH  071%=      5-min Rain = 0
KNH1 141132Z 04008KT 03/M02 A3021 RMK A01 T00261021  RH  071%=      5-min Rain = 0
KNH1 141133Z 04007KT 03/M02 A3021 RMK A01 T00251022  RH  071%=      5-min Rain = 0
KNH1 141134Z 04008KT 03/M02 A3021 RMK A01 T00251021  RH  071%=      5-min Rain = 0
KNH1 141135Z 04009KT 03/M02 A3021 RMK A01 T00251022  RH  071%=      5-min Rain = 0
KNH1 141136Z 04008KT 03/M02 A3021 RMK A01 T00251022  RH  071%=      5-min Rain = 0
KNH1 141137Z 04008KT 03/M02 A3021 RMK A01 T00251022  RH  071%=      5-min Rain = 0
KNH1 141138Z 04008KT 03/M02 A3021 RMK A01 T00251022  RH  071%=      5-min Rain = 0
KNH1 141139Z 04009KT 02/M02 A3021 RMK A01 T00241022  RH  072%=      5-min Rain = 0
KNH1 141140Z 04008KT 02/M02 A3021 RMK A01 T00241022  RH  072%=      5-min Rain = 0
KNH1 141141Z 04008KT 02/M02 A3021 RMK A01 T00241022  RH  071%=      5-min Rain = 0
KNH1 141142Z 04009KT 02/M02 A3021 RMK A01 T00231023  RH  071%=      5-min Rain = 0
KNH1 141143Z 04009KT 02/M02 A3021 RMK A01 T00231023  RH  072%=      5-min Rain = 0
KNH1 141144Z 04009KT 02/M02 A3021 RMK A01 T00231023  RH  072%=      5-min Rain = 0
KNH1 141145Z 04009KT 02/M02 A3021 RMK A01 T00231023  RH  072%=      5-min Rain = 0
KNH1 141146Z 04009KT 02/M02 A3021 RMK A01 T00231023  RH  072%=      5-min Rain = 0
KNH1 141147Z 04009KT 02/M02 A3021 RMK A01 T00221023  RH  072%=      5-min Rain = 0
KNH1 141148Z 04008KT 02/M02 A3021 RMK A01 T00221023  RH  072%=      5-min Rain = 0
KNH1 141149Z 04009KT 02/M02 A3021 RMK A01 T00221023  RH  072%=      5-min Rain = 0
KNH1 141150Z 04009KT 02/M02 A3021 RMK A01 T00221023  RH  072%=      5-min Rain = 0
KNH1 141151Z 04009KT 02/M02 A3021 RMK A01 T00221024  RH  072%=      5-min Rain = 0
KNH1 141152Z 04009KT 02/M02 A3021 RMK A01 T00221023  RH  072%=      5-min Rain = 0
KNH1 141153Z 04010KT 02/M02 A3021 RMK A01 T00221024  RH  072%=      5-min Rain = 0
KNH1 141154Z 04009KT 02/M02 A3021 RMK A01 T00221024  RH  072%=      5-min Rain = 0
KNH1 141155Z 04009KT 02/M02 A3022 RMK A01 T00221024  RH  072%=      5-min Rain = 0
KNH1 141156Z 04010KT 02/M02 A3022 RMK A01 T00221024  RH  072%=      5-min Rain = 0
KNH1 141157Z 04009KT 02/M02 A3022 RMK A01 T00221024  RH  072%=      5-min Rain = 0
KNH1 141158Z 04010KT 02/M02 A3022 RMK A01 T00221024  RH  072%=      5-min Rain = 0
KNH1 141159Z 04008KT 02/M02 A3022 RMK A01 T00221024  RH  072%=      5-min Rain = 0
KNH1 141200Z 04009KT 02/M02 A3022 RMK A01 T00211023  RH  073%=      5-min Rain = 0
KNH1 141201Z 04009KT 02/M02 A3022 RMK A01 T00211023  RH  073%=      5-min Rain = 0
KNH1 141202Z 04010KT 02/M02 A3022 RMK A01 T00201023  RH  073%=      5-min Rain = 0
KNH1 141203Z 04011KT 02/M02 A3022 RMK A01 T00201023  RH  073%=      5-min Rain = 0
KNH1 141204Z 04009KT 02/M02 A3022 RMK A01 T00211024  RH  073%=      5-min Rain = 0
KNH1 141205Z 04009KT 02/M02 A3022 RMK A01 T00211023  RH  073%=      5-min Rain = 0
KNH1 141206Z 04009KT 02/M02 A3022 RMK A01 T00201023  RH  073%=      5-min Rain = 0
KNH1 141207Z 03008KT 02/M02 A3023 RMK A01 T00201024  RH  073%=      5-min Rain = 0
KNH1 141208Z 04010KT 02/M02 A3023 RMK A01 T00201023  RH  073%=      5-min Rain = 0
KNH1 141209Z 04009KT 02/M02 A3023 RMK A01 T00201023  RH  073%=      5-min Rain = 0
KNH1 141210Z 03010KT 02/M02 A3023 RMK A01 T00201023  RH  073%=      5-min Rain = 0
KNH1 141211Z 04010KT 02/M02 A3023 RMK A01 T00191023  RH  073%=      5-min Rain = 0
KNH1 141212Z 04009KT 02/M02 A3023 RMK A01 T00201023  RH  073%=      5-min Rain = 0
KNH1 141213Z 04009KT 02/M02 A3023 RMK A01 T00201023  RH  073%=      5-min Rain = 0
KNH1 141214Z 03007KT 02/M02 A3023 RMK A01 T00191024  RH  073%=      5-min Rain = 0
KNH1 141215Z 04008KT 02/M02 A3023 RMK A01 T00191023  RH  074%=      5-min Rain = 0
KNH1 141216Z 04009KT 02/M02 A3023 RMK A01 T00181024  RH  074%=      5-min Rain = 0
KNH1 141217Z 04009KT 02/M02 A3023 RMK A01 T00181023  RH  074%=      5-min Rain = 0
KNH1 141218Z 04009KT 02/M02 A3024 RMK A01 T00181024  RH  074%=      5-min Rain = 0
KNH1 141219Z 03009KT 02/M02 A3024 RMK A01 T00181024  RH  074%=      5-min Rain = 0
KNH1 141220Z 04008KT 02/M02 A3024 RMK A01 T00181024  RH  073%=      5-min Rain = 0
KNH1 141221Z 04008KT 02/M02 A3024 RMK A01 T00181024  RH  074%=      5-min Rain = 0
KNH1 141222Z 03008KT 02/M02 A3024 RMK A01 T00181024  RH  074%=      5-min Rain = 0
KNH1 141223Z 04008KT 02/M02 A3024 RMK A01 T00171024  RH  074%=      5-min Rain = 0
KNH1 141224Z 04010KT 02/M02 A3024 RMK A01 T00171024  RH  074%=      5-min Rain = 0
KNH1 141225Z 04008KT 02/M02 A3024 RMK A01 T00171024  RH  074%=      5-min Rain = 0
KNH1 141226Z 04009KT 02/M03 A3024 RMK A01 T00171025  RH  074%=      5-min Rain = 0
KNH1 141227Z 03008KT 02/M03 A3024 RMK A01 T00171025  RH  074%=      5-min Rain = 0
KNH1 141228Z 04008KT 02/M02 A3024 RMK A01 T00171024  RH  074%=      5-min Rain = 0
KNH1 141229Z 04009KT 02/M03 A3024 RMK A01 T00171025  RH  074%=      5-min Rain = 0
KNH1 141230Z 04009KT 02/M03 A3024 RMK A01 T00181025  RH  073%=      5-min Rain = 0
KNH1 141231Z 04009KT 02/M03 A3024 RMK A01 T00181025  RH  073%=      5-min Rain = 0
KNH1 141232Z 04008KT 02/M03 A3024 RMK A01 T00191025  RH  073%=      5-min Rain = 0
KNH1 141233Z 04008KT 02/M03 A3025 RMK A01 T00191025  RH  073%=      5-min Rain = 0
KNH1 141234Z 04008KT 02/M03 A3025 RMK A01 T00181025  RH  073%=      5-min Rain = 0
KNH1 141235Z 04009KT 02/M03 A3025 RMK A01 T00181025  RH  073%=      5-min Rain = 0
KNH1 141236Z 04009KT 02/M03 A3025 RMK A01 T00181025  RH  073%=      5-min Rain = 0
KNH1 141237Z 04009KT 02/M03 A3025 RMK A01 T00181025  RH  073%=      5-min Rain = 0
KNH1 141238Z 04007KT 02/M02 A3025 RMK A01 T00181024  RH  073%=      5-min Rain = 0
KNH1 141239Z 04009KT 02/M03 A3025 RMK A01 T00171025  RH  074%=      5-min Rain = 0
KNH1 141240Z 04008KT 02/M03 A3025 RMK A01 T00171025  RH  074%=      5-min Rain = 0
KNH1 141241Z 04008KT 02/M02 A3025 RMK A01 T00171024  RH  074%=      5-min Rain = 0
KNH1 141242Z 04009KT 02/M03 A3025 RMK A01 T00161025  RH  074%=      5-min Rain = 0
KNH1 141243Z 04007KT 02/M03 A3025 RMK A01 T00161025  RH  074%=      5-min Rain = 0
KNH1 141244Z 03009KT 02/M03 A3025 RMK A01 T00161025  RH  074%=      5-min Rain = 0
KNH1 141245Z 03009KT 02/M03 A3025 RMK A01 T00161025  RH  074%=      5-min Rain = 0
KNH1 141246Z 03009KT 02/M03 A3025 RMK A01 T00161025  RH  074%=      5-min Rain = 0
KNH1 141247Z 04009KT 02/M03 A3025 RMK A01 T00171025  RH  074%=      5-min Rain = 0
KNH1 141248Z 03011KT 02/M03 A3025 RMK A01 T00171025  RH  074%=      5-min Rain = 0
KNH1 141249Z 03009KT 02/M03 A3025 RMK A01 T00171025  RH  074%=      5-min Rain = 0
KNH1 141250Z 03011KT 02/M03 A3025 RMK A01 T00171026  RH  073%=      5-min Rain = 0
KNH1 141251Z 03010KT 02/M03 A3025 RMK A01 T00181026  RH  073%=      5-min Rain = 0
KNH1 141252Z 03010KT 02/M03 A3026 RMK A01 T00181026  RH  073%=      5-min Rain = 0
KNH1 141253Z 04009KT 02/M03 A3026 RMK A01 T00181026  RH  073%=      5-min Rain = 0
KNH1 141254Z 04010KT 02/M03 A3026 RMK A01 T00181026  RH  073%=      5-min Rain = 0
KNH1 141255Z 03009KT 02/M03 A3026 RMK A01 T00171026  RH  073%=      5-min Rain = 0
KNH1 141256Z 03009KT 02/M03 A3026 RMK A01 T00171026  RH  073%=      5-min Rain = 0
KNH1 141257Z 03010KT 02/M03 A3026 RMK A01 T00171026  RH  073%=      5-min Rain = 0
KNH1 141258Z 03010KT 02/M03 A3026 RMK A01 T00171026  RH  073%=      5-min Rain = 0
KNH1 141259Z 04008KT 02/M03 A3026 RMK A01 T00171026  RH  073%=      5-min Rain = 0
KNH1 141300Z 03010KT 02/M03 A3026 RMK A01 T00171026  RH  073%=      5-min Rain = 0
KNH1 141301Z 03010KT 02/M03 A3026 RMK A01 T00171026  RH  073%=      5-min Rain = 0
KNH1 141302Z 03007KT 02/M03 A3026 RMK A01 T00171026  RH  073%=      5-min Rain = 0
KNH1 141303Z 04008KT 02/M03 A3027 RMK A01 T00161027  RH  073%=      5-min Rain = 0
KNH1 141304Z 04007KT 02/M03 A3027 RMK A01 T00161027  RH  073%=      5-min Rain = 0
KNH1 141305Z 04007KT 02/M03 A3027 RMK A01 T00161027  RH  073%=      5-min Rain = 0
KNH1 141306Z 04008KT 02/M03 A3027 RMK A01 T00161027  RH  073%=      5-min Rain = 0
KNH1 141307Z 04007KT 02/M03 A3027 RMK A01 T00161027  RH  073%=      5-min Rain = 0
KNH1 141308Z 04007KT 02/M03 A3027 RMK A01 T00151027  RH  073%=      5-min Rain = 0
KNH1 141309Z 03008KT 02/M03 A3027 RMK A01 T00151027  RH  074%=      5-min Rain = 0
KNH1 141310Z 04007KT 02/M03 A3027 RMK A01 T00151028  RH  073%=      5-min Rain = 0
KNH1 141311Z 04006KT 02/M03 A3027 RMK A01 T00151027  RH  073%=      5-min Rain = 0
KNH1 141312Z 04007KT 02/M03 A3027 RMK A01 T00151027  RH  073%=      5-min Rain = 0
KNH1 141313Z 04007KT 02/M03 A3028 RMK A01 T00151028  RH  073%=      5-min Rain = 0
KNH1 141314Z 04007KT 02/M03 A3028 RMK A01 T00151028  RH  073%=      5-min Rain = 0
KNH1 141315Z 04007KT 01/M03 A3028 RMK A01 T00141027  RH  074%=      5-min Rain = 0
KNH1 141316Z 04006KT 01/M03 A3028 RMK A01 T00141027  RH  074%=      5-min Rain = 0
KNH1 141317Z 04007KT 01/M03 A3028 RMK A01 T00141027  RH  074%=      5-min Rain = 0
KNH1 141318Z 04007KT 01/M03 A3028 RMK A01 T00131028  RH  074%=      5-min Rain = 0
KNH1 141319Z 04007KT 01/M03 A3028 RMK A01 T00131028  RH  074%=      5-min Rain = 0
KNH1 141320Z 04007KT 01/M03 A3028 RMK A01 T00131028  RH  074%=      5-min Rain = 0
KNH1 141321Z 04007KT 01/M03 A3028 RMK A01 T00141028  RH  074%=      5-min Rain = 0
KNH1 141322Z 04007KT 01/M03 A3029 RMK A01 T00131028  RH  074%=      5-min Rain = 0
KNH1 141323Z 04008KT 01/M03 A3029 RMK A01 T00131028  RH  074%=      5-min Rain = 0
KNH1 141324Z 04006KT 01/M03 A3029 RMK A01 T00131028  RH  074%=      5-min Rain = 0
KNH1 141325Z 04007KT 01/M03 A3029 RMK A01 T00131028  RH  074%=      5-min Rain = 0
KNH1 141326Z 04007KT 01/M03 A3029 RMK A01 T00131028  RH  074%=      5-min Rain = 0
KNH1 141327Z 04007KT 01/M03 A3029 RMK A01 T00131028  RH  074%=      5-min Rain = 0
KNH1 141328Z 04008KT 01/M03 A3029 RMK A01 T00141028  RH  074%=      5-min Rain = 0
KNH1 141329Z 04007KT 01/M03 A3029 RMK A01 T00141028  RH  073%=      5-min Rain = 0
KNH1 141330Z 04007KT 01/M03 A3029 RMK A01 T00141029  RH  073%=      5-min Rain = 0
KNH1 141331Z 04008KT 01/M03 A303 RMK A01 T00141028  RH  073%=      5-min Rain = 0
KNH1 141332Z 04007KT 01/M03 A3029 RMK A01 T00141028  RH  074%=      5-min Rain = 0
KNH1 141333Z 05006KT 01/M03 A3029 RMK A01 T00141029  RH  073%=      5-min Rain = 0
KNH1 141334Z 04007KT 01/M03 A3029 RMK A01 T00131029  RH  073%=      5-min Rain = 0
KNH1 141335Z 04007KT 01/M03 A3029 RMK A01 T00131029  RH  073%=      5-min Rain = 0
KNH1 141336Z 04008KT 01/M03 A3029 RMK A01 T00141029  RH  073%=      5-min Rain = 0
KNH1 141337Z 04008KT 01/M03 A3029 RMK A01 T00141029  RH  073%=      5-min Rain = 0
KNH1 141338Z 04006KT 01/M03 A303 RMK A01 T00141028  RH  073%=      5-min Rain = 0
KNH1 141339Z 04006KT 01/M03 A303 RMK A01 T00141028  RH  074%=      5-min Rain = 0
KNH1 141340Z 04006KT 01/M03 A303 RMK A01 T00141028  RH  074%=      5-min Rain = 0
KNH1 141341Z 04007KT 01/M03 A303 RMK A01 T00131029  RH  074%=      5-min Rain = 0
KNH1 141342Z 04007KT 01/M03 A303 RMK A01 T00141028  RH  073%=      5-min Rain = 0
KNH1 141343Z 04007KT 02/M03 A303 RMK A01 T00151029  RH  073%=      5-min Rain = 0
KNH1 141344Z 04007KT 02/M03 A303 RMK A01 T00151029  RH  072%=      5-min Rain = 0
KNH1 141345Z 04006KT 02/M03 A303 RMK A01 T00151029  RH  073%=      5-min Rain = 0
KNH1 141346Z 04006KT 02/M03 A303 RMK A01 T00151028  RH  073%=      5-min Rain = 0
KNH1 141347Z 04007KT 02/M03 A303 RMK A01 T00151028  RH  073%=      5-min Rain = 0
KNH1 141348Z 04007KT 02/M03 A303 RMK A01 T00151028  RH  073%=      5-min Rain = 0
KNH1 141349Z 04007KT 02/M03 A303 RMK A01 T00151028  RH  073%=      5-min Rain = 0
KNH1 141350Z 04007KT 02/M03 A303 RMK A01 T00161028  RH  073%=      5-min Rain = 0
KNH1 141351Z 04008KT 02/M03 A3031 RMK A01 T00161028  RH  073%=      5-min Rain = 0
KNH1 141352Z 04007KT 02/M03 A3031 RMK A01 T00161028  RH  073%=      5-min Rain = 0
KNH1 141353Z 04008KT 02/M03 A3031 RMK A01 T00161028  RH  073%=      5-min Rain = 0
KNH1 141354Z 04006KT 02/M03 A3031 RMK A01 T00171027  RH  073%=      5-min Rain = 0
KNH1 141355Z 04006KT 02/M03 A3031 RMK A01 T00171026  RH  073%=      5-min Rain = 0
KNH1 141356Z 04007KT 02/M03 A3031 RMK A01 T00171026  RH  073%=      5-min Rain = 0
KNH1 141357Z 05007KT 02/M03 A3031 RMK A01 T00171027  RH  073%=      5-min Rain = 0
KNH1 141358Z 05008KT 02/M03 A3031 RMK A01 T00171027  RH  072%=      5-min Rain = 0
KNH1 141359Z 04006KT 02/M03 A3031 RMK A01 T00181027  RH  072%=      5-min Rain = 0
KNH1 141400Z 04007KT 02/M03 A3031 RMK A01 T00171027  RH  073%=      5-min Rain = 0
KNH1 141401Z 05007KT 02/M03 A3031 RMK A01 T00181026  RH  073%=      5-min Rain = 0
KNH1 141402Z 04008KT 02/M03 A3031 RMK A01 T00181026  RH  072%=      5-min Rain = 0
KNH1 141403Z 04007KT 02/M03 A3031 RMK A01 T00191025  RH  073%=      5-min Rain = 0
KNH1 141404Z 04006KT 02/M03 A3031 RMK A01 T00191025  RH  073%=      5-min Rain = 0
KNH1 141405Z 04008KT 02/M03 A3031 RMK A01 T00191025  RH  073%=      5-min Rain = 0
KNH1 141406Z 05007KT 02/M03 A3032 RMK A01 T00191025  RH  072%=      5-min Rain = 0
KNH1 141407Z 04006KT 02/M03 A3032 RMK A01 T00201025  RH  072%=      5-min Rain = 0
KNH1 141408Z 04006KT 02/M03 A3032 RMK A01 T00201025  RH  072%=      5-min Rain = 0
KNH1 141409Z 05008KT 02/M03 A3032 RMK A01 T00201025  RH  072%=      5-min Rain = 0
KNH1 141410Z 04009KT 02/M02 A3032 RMK A01 T00211024  RH  072%=      5-min Rain = 0
KNH1 141411Z 04007KT 02/M03 A3032 RMK A01 T00211025  RH  072%=      5-min Rain = 0
KNH1 141412Z 04008KT 02/M03 A3032 RMK A01 T00221025  RH  071%=      5-min Rain = 0
KNH1 141413Z 04009KT 02/M02 A3032 RMK A01 T00221024  RH  071%=      5-min Rain = 0
KNH1 141414Z 05009KT 02/M02 A3032 RMK A01 T00231024  RH  071%=      5-min Rain = 0
KNH1 141415Z 04009KT 02/M03 A3032 RMK A01 T00231025  RH  071%=      5-min Rain = 0
KNH1 141416Z 04008KT 02/M02 A3033 RMK A01 T00231024  RH  071%=      5-min Rain = 0
KNH1 141417Z 04009KT 02/M02 A3033 RMK A01 T00241024  RH  071%=      5-min Rain = 0
KNH1 141418Z 04008KT 03/M02 A3033 RMK A01 T00251024  RH  070%=      5-min Rain = 0
KNH1 141419Z 04010KT 03/M02 A3033 RMK A01 T00251024  RH  070%=      5-min Rain = 0
KNH1 141420Z 04011KT 03/M02 A3033 RMK A01 T00251024  RH  070%=      5-min Rain = 0
KNH1 141421Z 04010KT 03/M02 A3033 RMK A01 T00261024  RH  070%=      5-min Rain = 0
KNH1 141422Z 04009KT 03/M02 A3033 RMK A01 T00261023  RH  070%=      5-min Rain = 0
KNH1 141423Z 04009KT 03/M02 A3033 RMK A01 T00271024  RH  069%=      5-min Rain = 0
KNH1 141424Z 04012KT 03/M02 A3033 RMK A01 T00271023  RH  069%=      5-min Rain = 0
KNH1 141425Z 04009KT 03/M02 A3033 RMK A01 T00281023  RH  069%=      5-min Rain = 0
KNH1 141426Z 04008KT 03/M02 A3033 RMK A01 T00281021  RH  070%=      5-min Rain = 0
KNH1 141427Z 04008KT 03/M02 A3033 RMK A01 T00291020  RH  070%=      5-min Rain = 0
KNH1 141428Z 05009KT 03/M02 A3033 RMK A01 T00291021  RH  070%=      5-min Rain = 0
KNH1 141429Z 04007KT 03/M02 A3033 RMK A01 T00291021  RH  070%=      5-min Rain = 0
KNH1 141430Z 05008KT 03/M02 A3033 RMK A01 T00301020  RH  070%=      5-min Rain = 0
KNH1 141431Z 04007KT 03/M02 A3033 RMK A01 T00301020  RH  070%=      5-min Rain = 0
KNH1 141432Z 04009KT 03/M02 A3033 RMK A01 T00301019  RH  070%=      5-min Rain = 0
KNH1 141433Z 04012KT 03/M02 A3033 RMK A01 T00311021  RH  069%=      5-min Rain = 0
KNH1 141434Z 05010KT 03/M02 A3033 RMK A01 T00311022  RH  068%=      5-min Rain = 0
KNH1 141435Z 04009KT 03/M02 A3034 RMK A01 T00311021  RH  069%=      5-min Rain = 0
KNH1 141436Z 05009KT 03/M02 A3034 RMK A01 T00321019  RH  070%=      5-min Rain = 0
KNH1 141437Z 05008KT 03/M02 A3034 RMK A01 T00321018  RH  070%=      5-min Rain = 0
KNH1 141438Z 05010KT 03/M02 A3034 RMK A01 T00321018  RH  069%=      5-min Rain = 0
KNH1 141439Z 05011KT 03/M02 A3034 RMK A01 T00321020  RH  069%=      5-min Rain = 0
KNH1 141440Z 05012KT 03/M02 A3034 RMK A01 T00331020  RH  069%=      5-min Rain = 0
KNH1 141441Z 04010KT 03/M02 A3034 RMK A01 T00331019  RH  069%=      5-min Rain = 0
KNH1 141442Z 05011KT 03/M02 A3034 RMK A01 T00331018  RH  069%=      5-min Rain = 0
KNH1 141443Z 05011KT 03/M02 A3034 RMK A01 T00331019  RH  069%=      5-min Rain = 0
KNH1 141444Z 05008KT 03/M02 A3034 RMK A01 T00331018  RH  069%=      5-min Rain = 0
KNH1 141445Z 04009KT 03/M02 A3034 RMK A01 T00341016  RH  070%=      5-min Rain = 0
KNH1 141446Z 04011KT 04/M02 A3034 RMK A01 T00351016  RH  069%=      5-min Rain = 0
KNH1 141447Z 04010KT 04/M02 A3035 RMK A01 T00351016  RH  069%=      5-min Rain = 0
KNH1 141448Z 05010KT 04/M02 A3035 RMK A01 T00351015  RH  070%=      5-min Rain = 0
KNH1 141449Z 05009KT 04/M02 A3035 RMK A01 T00351015  RH  070%=      5-min Rain = 0
KNH1 141450Z 04009KT 04/M02 A3035 RMK A01 T00361015  RH  069%=      5-min Rain = 0
KNH1 141451Z 05010KT 04/M01 A3035 RMK A01 T00361013  RH  070%=      5-min Rain = 0
KNH1 141452Z 06011KT 04/M01 A3035 RMK A01 T00371014  RH  069%=      5-min Rain = 0
KNH1 141453Z 05010KT 04/M01 A3035 RMK A01 T00371014  RH  069%=      5-min Rain = 0
KNH1 141454Z 05011KT 04/M01 A3035 RMK A01 T00371013  RH  070%=      5-min Rain = 0
KNH1 141455Z 05012KT 04/M01 A3035 RMK A01 T00371014  RH  069%=      5-min Rain = 0
KNH1 141456Z 05011G16KT 04/M01 A3035 RMK A01 T00371014  RH  069%=      5-min Rain = 0
KNH1 141457Z 05010KT 04/M01 A3035 RMK A01 T00381013  RH  069%=      5-min Rain = 0
KNH1 141458Z 05010KT 04/M01 A3036 RMK A01 T00381012  RH  070%=      5-min Rain = 0
KNH1 141459Z 05009KT 04/M01 A3036 RMK A01 T00391011  RH  070%=      5-min Rain = 0
KNH1 141500Z 05010KT 04/M01 A3036 RMK A01 T00401009  RH  070%=      5-min Rain = 0
KNH1 141501Z 05010KT 04/M01 A3036 RMK A01 T00411009  RH  070%=      5-min Rain = 0
KNH1 141502Z 05012KT 04/M01 A3036 RMK A01 T00421010  RH  069%=      5-min Rain = 0
KNH1 141503Z 05008KT 04/M01 A3036 RMK A01 T00421010  RH  069%=      5-min Rain = 0
KNH1 141504Z 05010KT 04/M01 A3036 RMK A01 T00421009  RH  069%=      5-min Rain = 0
KNH1 141505Z 05011KT 04/M01 A3036 RMK A01 T00431010  RH  069%=      5-min Rain = 0
KNH1 141506Z 05009KT 04/M01 A3036 RMK A01 T00431009  RH  069%=      5-min Rain = 0
KNH1 141507Z 05009KT 04/M01 A3036 RMK A01 T00441007  RH  069%=      5-min Rain = 0
KNH1 141508Z 05011KT 05/M01 A3036 RMK A01 T00461006  RH  069%=      5-min Rain = 0
KNH1 141509Z 05009KT 05/M01 A3036 RMK A01 T00461008  RH  068%=      5-min Rain = 0
KNH1 141510Z 05013KT 05/M01 A3036 RMK A01 T00471007  RH  068%=      5-min Rain = 0
KNH1 141511Z 06012KT 05/M01 A3036 RMK A01 T00471007  RH  068%=      5-min Rain = 0
KNH1 141512Z 06011KT 05/M01 A3036 RMK A01 T00471005  RH  069%=      5-min Rain = 0
KNH1 141513Z 06013KT 05/M01 A3036 RMK A01 T00481007  RH  068%=      5-min Rain = 0
KNH1 141514Z 05013KT 05/M01 A3036 RMK A01 T00481006  RH  068%=      5-min Rain = 0
KNH1 141515Z 06015KT 05/M01 A3036 RMK A01 T00481007  RH  068%=      5-min Rain = 0
KNH1 141516Z 05013KT 05/M01 A3036 RMK A01 T00471007  RH  068%=      5-min Rain = 0
KNH1 141517Z 06012KT 05/M01 A3036 RMK A01 T00471006  RH  068%=      5-min Rain = 0
KNH1 141518Z 05013KT 05/M01 A3036 RMK A01 T00481006  RH  068%=      5-min Rain = 0
KNH1 141519Z 05015G20KT 05/M01 A3036 RMK A01 T00481006  RH  068%=      5-min Rain = 0
KNH1 141520Z 07013KT 05/M01 A3037 RMK A01 T00481005  RH  068%=      5-min Rain = 0
KNH1 141521Z 06011KT 05/M01 A3037 RMK A01 T00481006  RH  068%=      5-min Rain = 0
KNH1 141522Z 07011KT 05/M00 A3037 RMK A01 T00491004  RH  068%=      5-min Rain = 0
KNH1 141523Z 06013KT 05/M00 A3037 RMK A01 T00501004  RH  068%=      5-min Rain = 0
KNH1 141524Z 06010KT 05/M01 A3037 RMK A01 T00501005  RH  068%=      5-min Rain = 0
KNH1 141525Z 06012KT 05/M00 A3037 RMK A01 T00501004  RH  068%=      5-min Rain = 0
KNH1 141526Z 05012KT 05/M00 A3037 RMK A01 T00511004  RH  068%=      5-min Rain = 0
KNH1 141527Z 06015KT 05/M01 A3037 RMK A01 T00511005  RH  067%=      5-min Rain = 0
KNH1 141528Z 06012G17KT 05/M01 A3037 RMK A01 T00501005  RH  067%=      5-min Rain = 0
KNH1 141529Z 06010KT 05/M00 A3037 RMK A01 T00501004  RH  068%=      5-min Rain = 0
KNH1 141530Z 06011KT 05/M00 A3037 RMK A01 T00521002  RH  069%=      5-min Rain = 0
KNH1 141531Z 06012G17KT 05/M00 A3037 RMK A01 T00531001  RH  068%=      5-min Rain = 0
KNH1 141532Z 06012KT 05/M00 A3037 RMK A01 T00531002  RH  068%=      5-min Rain = 0
KNH1 141533Z 07012KT 05/M00 A3037 RMK A01 T00531001  RH  068%=      5-min Rain = 0
KNH1 141534Z 06015KT 05/M00 A3037 RMK A01 T00531002  RH  067%=      5-min Rain = 0
KNH1 141535Z 06015G20KT 05/M00 A3037 RMK A01 T00521004  RH  067%=      5-min Rain = 0
KNH1 141536Z 06015KT 05/M00 A3037 RMK A01 T00521003  RH  068%=      5-min Rain = 0
KNH1 141537Z 06011KT 05/M00 A3037 RMK A01 T00521002  RH  068%=      5-min Rain = 0
KNH1 141538Z 05011KT 05/M00 A3037 RMK A01 T00521002  RH  068%=      5-min Rain = 0
KNH1 141539Z 06012KT 05/M00 A3037 RMK A01 T00531002  RH  068%=      5-min Rain = 0
KNH1 141540Z 06011KT 05/M00 A3037 RMK A01 T00531001  RH  068%=      5-min Rain = 0
KNH1 141541Z 06014KT 05/M00 A3037 RMK A01 T00541002  RH  067%=      5-min Rain = 0
KNH1 141542Z 06013G18KT 05/M00 A3037 RMK A01 T00531003  RH  067%=      5-min Rain = 0
KNH1 141543Z 07012KT 05/M00 A3037 RMK A01 T00541002  RH  067%=      5-min Rain = 0
KNH1 141544Z 07014G19KT 05/M00 A3037 RMK A01 T00541001  RH  068%=      5-min Rain = 0
KNH1 141545Z 05014KT 05/M00 A3037 RMK A01 T00541002  RH  067%=      5-min Rain = 0
KNH1 141546Z 06013KT 06/M00 A3037 RMK A01 T00551002  RH  067%=      5-min Rain = 0
KNH1 141547Z 06011KT 06/M00 A3037 RMK A01 T00551002  RH  067%=      5-min Rain = 0
KNH1 141548Z 06010KT 06/M00 A3037 RMK A01 T00551002  RH  067%=      5-min Rain = 0
KNH1 141549Z 05013KT 06/M00 A3037 RMK A01 T00561001  RH  067%=      5-min Rain = 0
KNH1 141550Z 07011KT 06/M00 A3037 RMK A01 T00561001  RH  067%=      5-min Rain = 0
KNH1 141551Z 06012KT 06/00 A3037 RMK A01 T00560000  RH  067%=      5-min Rain = 0
KNH1 141552Z 05012KT 06/00 A3038 RMK A01 T00570001  RH  067%=      5-min Rain = 0
KNH1 141553Z 06010G15KT 06/00 A3038 RMK A01 T00580000  RH  066%=      5-min Rain = 0
KNH1 141554Z 06012G17KT 06/00 A3038 RMK A01 T005800-0  RH  066%=      5-min Rain = 0
KNH1 141555Z 04013G18KT 06/00 A3038 RMK A01 T005800-0  RH  066%=      5-min Rain = 0
KNH1 141556Z 06014KT 06/M00 A3038 RMK A01 T00581001  RH  066%=      5-min Rain = 0
KNH1 141557Z 06012KT 06/M00 A3038 RMK A01 T00571002  RH  066%=      5-min Rain = 0
KNH1 141558Z 05009KT 06/00 A3038 RMK A01 T00580001  RH  067%=      5-min Rain = 0
KNH1 141559Z 06012G17KT 06/00 A3038 RMK A01 T00600002  RH  066%=      5-min Rain = 0
KNH1 141600Z 07013G18KT 06/00 A3038 RMK A01 T00610001  RH  065%=      5-min Rain = 0
KNH1 141601Z 06011KT 06/00 A3038 RMK A01 T00610000  RH  065%=      5-min Rain = 0
KNH1 141602Z 07012KT 06/00 A3038 RMK A01 T006100-0  RH  065%=      5-min Rain = 0
KNH1 141603Z 05013G18KT 06/00 A3038 RMK A01 T006100-0  RH  065%=      5-min Rain = 0
KNH1 141604Z 06012G18KT 06/M00 A3038 RMK A01 T00601001  RH  065%=      5-min Rain = 0
KNH1 141605Z 05013KT 06/M00 A3038 RMK A01 T00601002  RH  065%=      5-min Rain = 0
KNH1 141606Z 07014KT 06/M00 A3038 RMK A01 T00601001  RH  065%=      5-min Rain = 0
KNH1 141607Z 07012KT 06/M00 A3038 RMK A01 T00601001  RH  065%=      5-min Rain = 0
KNH1 141608Z 06011KT 06/00 A3038 RMK A01 T00620001  RH  065%=      5-min Rain = 0
KNH1 141609Z 07011KT 06/00 A3038 RMK A01 T00630000  RH  064%=      5-min Rain = 0
KNH1 141610Z 06013KT 06/00 A3038 RMK A01 T00630000  RH  064%=      5-min Rain = 0
KNH1 141611Z 05012KT 06/00 A3039 RMK A01 T00640001  RH  064%=      5-min Rain = 0
KNH1 141612Z 05013KT 06/00 A3039 RMK A01 T00640000  RH  064%=      5-min Rain = 0
KNH1 141613Z 06012KT 06/00 A3039 RMK A01 T00640001  RH  064%=      5-min Rain = 0
KNH1 141614Z 05012KT 07/00 A3039 RMK A01 T00650001  RH  064%=      5-min Rain = 0
KNH1 141615Z 06012KT 07/00 A3039 RMK A01 T00650001  RH  064%=      5-min Rain = 0
KNH1 141616Z 05012KT 07/00 A3039 RMK A01 T00660001  RH  063%=      5-min Rain = 0
KNH1 141617Z 05012KT 07/00 A3039 RMK A01 T00660001  RH  063%=      5-min Rain = 0
KNH1 141618Z 05014KT 07/00 A3039 RMK A01 T00660000  RH  063%=      5-min Rain = 0
KNH1 141619Z 05012G17KT 07/00 A3039 RMK A01 T00650001  RH  063%=      5-min Rain = 0
KNH1 141620Z 06015KT 07/00 A3039 RMK A01 T00660000  RH  063%=      5-min Rain = 0
KNH1 141621Z 07012KT 07/00 A3039 RMK A01 T00660000  RH  063%=      5-min Rain = 0
KNH1 141622Z 07013KT 07/00 A3039 RMK A01 T00670002  RH  063%=      5-min Rain = 0
KNH1 141623Z 07013KT 07/00 A3039 RMK A01 T00680002  RH  063%=      5-min Rain = 0
KNH1 141624Z 07012KT 07/00 A3039 RMK A01 T00680001  RH  062%=      5-min Rain = 0
KNH1 141625Z 07014G19KT 07/00 A3039 RMK A01 T00680002  RH  063%=      5-min Rain = 0
KNH1 141626Z 07015KT 07/00 A3039 RMK A01 T00680002  RH  063%=      5-min Rain = 0
KNH1 141627Z 07013KT 07/00 A3039 RMK A01 T00670001  RH  063%=      5-min Rain = 0
KNH1 141628Z 07013KT 07/00 A3039 RMK A01 T00680003  RH  064%=      5-min Rain = 0
KNH1 141629Z 07013KT 07/00 A304 RMK A01 T00690003  RH  063%=      5-min Rain = 0
KNH1 141630Z 07014KT 07/00 A304 RMK A01 T00700004  RH  063%=      5-min Rain = 0
KNH1 141631Z 06015KT 07/00 A304 RMK A01 T00710003  RH  062%=      5-min Rain = 0
KNH1 141632Z 07013KT 07/00 A304 RMK A01 T00700002  RH  062%=      5-min Rain = 0
KNH1 141633Z 07015KT 07/00 A304 RMK A01 T00690003  RH  063%=      5-min Rain = 0
KNH1 141634Z 06011KT 07/00 A304 RMK A01 T00690003  RH  063%=      5-min Rain = 0
KNH1 141635Z 06015KT 07/00 A304 RMK A01 T00690003  RH  063%=      5-min Rain = 0
KNH1 141636Z 06011KT 07/00 A304 RMK A01 T00710004  RH  062%=      5-min Rain = 0
KNH1 141637Z 06014G19KT 07/00 A304 RMK A01 T00720003  RH  062%=      5-min Rain = 0
KNH1 141638Z 06015G21KT 07/00 A304 RMK A01 T00710001  RH  061%=      5-min Rain = 0
KNH1 141639Z 05013KT 07/00 A304 RMK A01 T00700001  RH  061%=      5-min Rain = 0
KNH1 141640Z 07014G19KT 07/00 A304 RMK A01 T00700000  RH  061%=      5-min Rain = 0
KNH1 141641Z 07015KT 07/00 A304 RMK A01 T00700002  RH  062%=      5-min Rain = 0
KNH1 141642Z 07015KT 07/00 A304 RMK A01 T00710002  RH  062%=      5-min Rain = 0
KNH1 141643Z 07014KT 07/00 A304 RMK A01 T00700001  RH  062%=      5-min Rain = 0
KNH1 141644Z 07014KT 07/00 A304 RMK A01 T00700001  RH  061%=      5-min Rain = 0
KNH1 141645Z 06012KT 07/00 A304 RMK A01 T00710002  RH  061%=      5-min Rain = 0
KNH1 141646Z 07014KT 07/00 A304 RMK A01 T00720002  RH  061%=      5-min Rain = 0
KNH1 141647Z 07016KT 07/00 A304 RMK A01 T00720002  RH  061%=      5-min Rain = 0
KNH1 141648Z 06012KT 07/00 A304 RMK A01 T00710000  RH  061%=      5-min Rain = 0
KNH1 141649Z 06011KT 07/00 A304 RMK A01 T00720002  RH  061%=      5-min Rain = 0
KNH1 141650Z 06013G18KT 08/01 A304 RMK A01 T00750006  RH  061%=      5-min Rain = 0
KNH1 141651Z 07014KT 08/00 A304 RMK A01 T00770002  RH  059%=      5-min Rain = 0
KNH1 141652Z 06013KT 08/00 A304 RMK A01 T00750001  RH  059%=      5-min Rain = 0
KNH1 141653Z 05014KT 07/00 A304 RMK A01 T00740001  RH  060%=      5-min Rain = 0
KNH1 141654Z 05013KT 08/00 A304 RMK A01 T00750001  RH  060%=      5-min Rain = 0
KNH1 141655Z 05013KT 08/00 A304 RMK A01 T00750001  RH  059%=      5-min Rain = 0
KNH1 141656Z 05014KT 08/00 A304 RMK A01 T00760002  RH  059%=      5-min Rain = 0
KNH1 141657Z 04014KT 08/00 A304 RMK A01 T00770001  RH  058%=      5-min Rain = 0
KNH1 141658Z 05017KT 08/M00 A304 RMK A01 T00761001  RH  058%=      5-min Rain = 0
KNH1 141659Z 05015KT 07/M00 A304 RMK A01 T00741002  RH  059%=      5-min Rain = 0
KNH1 141700Z 05015KT 07/M00 A304 RMK A01 T00731002  RH  059%=      5-min Rain = 0
KNH1 141701Z 05015KT 07/M00 A304 RMK A01 T00741001  RH  059%=      5-min Rain = 0
KNH1 141702Z 05015KT 07/M00 A304 RMK A01 T00741001  RH  059%=      5-min Rain = 0
KNH1 141703Z 05012G17KT 08/M00 A304 RMK A01 T00751001  RH  059%=      5-min Rain = 0
KNH1 141704Z 06013G19KT 08/00 A304 RMK A01 T007500-0  RH  059%=      5-min Rain = 0
KNH1 141705Z 07013KT 08/M00 A304 RMK A01 T00761001  RH  058%=      5-min Rain = 0
KNH1 141706Z 07016KT 08/M00 A304 RMK A01 T00761001  RH  058%=      5-min Rain = 0
KNH1 141707Z 06015KT 08/M00 A304 RMK A01 T00761001  RH  058%=      5-min Rain = 0
KNH1 141708Z 06012KT 08/M00 A304 RMK A01 T00751003  RH  058%=      5-min Rain = 0
KNH1 141709Z 07013G19KT 08/00 A304 RMK A01 T00750000  RH  059%=      5-min Rain = 0
KNH1 141710Z 06014KT 08/M00 A304 RMK A01 T00771001  RH  058%=      5-min Rain = 0
KNH1 141711Z 05014G19KT 08/M00 A304 RMK A01 T00771003  RH  057%=      5-min Rain = 0
KNH1 141712Z 05013KT 08/M00 A304 RMK A01 T00771003  RH  057%=      5-min Rain = 0
KNH1 141713Z 04010KT 08/M00 A304 RMK A01 T00771003  RH  057%=      5-min Rain = 0
KNH1 141714Z 06013G18KT 08/00 A304 RMK A01 T00790000  RH  057%=      5-min Rain = 0
KNH1 141715Z 06014G19KT 08/00 A304 RMK A01 T00830000  RH  056%=      5-min Rain = 0
KNH1 141716Z 06013KT 08/M00 A304 RMK A01 T00821003  RH  055%=      5-min Rain = 0
KNH1 141717Z 06012G17KT 08/M00 A304 RMK A01 T00811003  RH  055%=      5-min Rain = 0
KNH1 141718Z 05013KT 08/M00 A304 RMK A01 T00811001  RH  056%=      5-min Rain = 0
KNH1 141719Z 05012KT 08/M00 A3041 RMK A01 T00821002  RH  055%=      5-min Rain = 0
KNH1 141720Z 06013G18KT 08/M00 A3041 RMK A01 T00821004  RH  055%=      5-min Rain = 0
KNH1 141721Z 05015KT 08/M00 A304 RMK A01 T00811003  RH  055%=      5-min Rain = 0
KNH1 141722Z 05015G20KT 08/M00 A304 RMK A01 T00811004  RH  055%=      5-min Rain = 0
KNH1 141723Z 05014KT 08/M00 A304 RMK A01 T00811004  RH  055%=      5-min Rain = 0
KNH1 141724Z 05014KT 08/M00 A304 RMK A01 T00811004  RH  055%=      5-min Rain = 0
KNH1 141725Z 06015KT 08/M00 A3041 RMK A01 T00831003  RH  055%=      5-min Rain = 0
KNH1 141726Z 06015G20KT 08/M01 A3041 RMK A01 T00831006  RH  054%=      5-min Rain = 0
KNH1 141727Z 06013KT 08/M01 A3041 RMK A01 T00821005  RH  054%=      5-min Rain = 0
KNH1 141728Z 05012KT 08/M01 A3041 RMK A01 T00811005  RH  054%=      5-min Rain = 0
KNH1 141729Z 07011KT 08/M00 A3041 RMK A01 T00821003  RH  055%=      5-min Rain = 0
KNH1 141730Z 07014KT 08/M00 A304 RMK A01 T00831003  RH  055%=      5-min Rain = 0
KNH1 141731Z 07013KT 08/M00 A304 RMK A01 T00831003  RH  054%=      5-min Rain = 0
KNH1 141732Z 07013G18KT 08/M00 A3041 RMK A01 T00841001  RH  055%=      5-min Rain = 0
KNH1 141733Z 07016KT 09/M00 A304 RMK A01 T00851002  RH  054%=      5-min Rain = 0
KNH1 141734Z 06013G18KT 09/M00 A3041 RMK A01 T00851003  RH  054%=      5-min Rain = 0
KNH1 141735Z 06013G18KT 09/M00 A3041 RMK A01 T00851002  RH  054%=      5-min Rain = 0
KNH1 141736Z 07013KT 09/M00 A3041 RMK A01 T00861004  RH  053%=      5-min Rain = 0
KNH1 141737Z 05011KT 09/M00 A3041 RMK A01 T00861003  RH  054%=      5-min Rain = 0
KNH1 141738Z 05014KT 09/M01 A3041 RMK A01 T00871005  RH  052%=      5-min Rain = 0
KNH1 141739Z 05013KT 09/M01 A3041 RMK A01 T00861007  RH  052%=      5-min Rain = 0
KNH1 141740Z 06010KT 09/M01 A3041 RMK A01 T00861007  RH  052%=      5-min Rain = 0
KNH1 141741Z 05010KT 09/M00 A3041 RMK A01 T00871003  RH  053%=      5-min Rain = 0
KNH1 141742Z 06011G17KT 09/M00 A3041 RMK A01 T00891003  RH  053%=      5-min Rain = 0
KNH1 141743Z 05011KT 09/M00 A3041 RMK A01 T00891003  RH  052%=      5-min Rain = 0
KNH1 141744Z 05011KT 09/M01 A3041 RMK A01 T00891005  RH  052%=      5-min Rain = 0
KNH1 141745Z 06013G18KT 09/M00 A3041 RMK A01 T00891003  RH  052%=      5-min Rain = 0
KNH1 141746Z 06013G18KT 09/M01 A3041 RMK A01 T00891005  RH  052%=      5-min Rain = 0
KNH1 141747Z 06015KT 09/M01 A304 RMK A01 T00891008  RH  051%=      5-min Rain = 0
KNH1 141748Z 06014KT 09/M01 A304 RMK A01 T00881009  RH  051%=      5-min Rain = 0
KNH1 141749Z 06015KT 09/M01 A304 RMK A01 T00861010  RH  051%=      5-min Rain = 0
KNH1 141750Z 07011KT 09/M01 A3041 RMK A01 T00851008  RH  052%=      5-min Rain = 0
KNH1 141751Z 05011KT 09/M01 A3041 RMK A01 T00871005  RH  052%=      5-min Rain = 0
KNH1 141752Z 06010KT 09/M01 A3041 RMK A01 T00881007  RH  051%=      5-min Rain = 0
KNH1 141753Z 06012KT 09/M01 A304 RMK A01 T00881008  RH  051%=      5-min Rain = 0
KNH1 141754Z 06011KT 09/M01 A304 RMK A01 T00881007  RH  051%=      5-min Rain = 0
KNH1 141755Z 05012G17KT 09/M01 A304 RMK A01 T00891007  RH  051%=      5-min Rain = 0
KNH1 141756Z 06012KT 09/M01 A304 RMK A01 T00911006  RH  051%=      5-min Rain = 0
KNH1 141757Z 08011KT 09/M01 A304 RMK A01 T00911007  RH  050%=      5-min Rain = 0
KNH1 141758Z 07008KT 09/M01 A304 RMK A01 T00891008  RH  050%=      5-min Rain = 0
KNH1 141759Z 06012G18KT 09/M01 A304 RMK A01 T00891006  RH  051%=      5-min Rain = 0
KNH1 141800Z 05013KT 09/M01 A304 RMK A01 T00901008  RH  050%=      5-min Rain = 0
KNH1 141801Z 06012KT 09/M01 A304 RMK A01 T00901010  RH  049%=      5-min Rain = 0
KNH1 141802Z 07011KT 09/M01 A304 RMK A01 T00901008  RH  050%=      5-min Rain = 0
KNH1 141803Z 07014KT 09/M01 A304 RMK A01 T00921008  RH  050%=      5-min Rain = 0
KNH1 141804Z 07012KT 09/M01 A304 RMK A01 T00911008  RH  050%=      5-min Rain = 0
KNH1 141805Z 08013KT 09/M01 A304 RMK A01 T00921009  RH  049%=      5-min Rain = 0
KNH1 141806Z 08012KT 09/M01 A304 RMK A01 T00911010  RH  049%=      5-min Rain = 0
KNH1 141807Z 07012KT 09/M01 A304 RMK A01 T00901008  RH  050%=      5-min Rain = 0
KNH1 141808Z 08013G18KT 09/M01 A304 RMK A01 T00921006  RH  050%=      5-min Rain = 0
KNH1 141809Z 05011G17KT 09/M00 A304 RMK A01 T00941003  RH  051%=      5-min Rain = 0
KNH1 141810Z 05012KT 10/M01 A304 RMK A01 T00971005  RH  049%=      5-min Rain = 0
KNH1 141811Z 05013KT 10/M01 A304 RMK A01 T00951008  RH  049%=      5-min Rain = 0
KNH1 141812Z 05011KT 09/M01 A304 RMK A01 T00931008  RH  049%=      5-min Rain = 0
KNH1 141813Z 05009KT 09/M01 A304 RMK A01 T00941006  RH  049%=      5-min Rain = 0
KNH1 141814Z 07012KT 10/M01 A304 RMK A01 T00951007  RH  049%=      5-min Rain = 0
KNH1 141815Z 07009KT 09/M01 A304 RMK A01 T00941007  RH  049%=      5-min Rain = 0
KNH1 141816Z 07009KT 10/M00 A304 RMK A01 T00971001  RH  050%=      5-min Rain = 0
KNH1 141817Z 07011KT 10/M00 A304 RMK A01 T01001003  RH  049%=      5-min Rain = 0
KNH1 141818Z 06011KT 10/M01 A304 RMK A01 T00981008  RH  048%=      5-min Rain = 0
KNH1 141819Z 05013KT 10/M01 A304 RMK A01 T00971007  RH  048%=      5-min Rain = 0
KNH1 141820Z 07011G16KT 10/M01 A304 RMK A01 T00961009  RH  048%=      5-min Rain = 0
KNH1 141821Z 06011KT 10/M01 A304 RMK A01 T00961006  RH  049%=      5-min Rain = 0
KNH1 141822Z 05014KT 10/M01 A304 RMK A01 T00971006  RH  049%=      5-min Rain = 0
KNH1 141823Z 05010G15KT 10/M01 A304 RMK A01 T00971006  RH  049%=      5-min Rain = 0
KNH1 141824Z 06012KT 10/M01 A304 RMK A01 T00981006  RH  048%=      5-min Rain = 0
KNH1 141825Z 05014KT 10/M01 A304 RMK A01 T00971009  RH  048%=      5-min Rain = 0
KNH1 141826Z 04014KT 09/M01 A304 RMK A01 T00941010  RH  048%=      5-min Rain = 0
KNH1 141827Z 05012KT 09/M01 A304 RMK A01 T00931009  RH  049%=      5-min Rain = 0
KNH1 141828Z 05010KT 09/M01 A304 RMK A01 T00941007  RH  049%=      5-min Rain = 0
KNH1 141829Z 06010G15KT 10/M01 A304 RMK A01 T00961006  RH  049%=      5-min Rain = 0
KNH1 141830Z 06012KT 10/M01 A304 RMK A01 T00971008  RH  048%=      5-min Rain = 0
KNH1 141831Z 06011KT 10/M01 A304 RMK A01 T00951010  RH  048%=      5-min Rain = 0
KNH1 141832Z 05012KT 10/M01 A3039 RMK A01 T00961007  RH  049%=      5-min Rain = 0
KNH1 141833Z 05012KT 10/M01 A3039 RMK A01 T00981005  RH  049%=      5-min Rain = 0
KNH1 141834Z 05011KT 10/M01 A3039 RMK A01 T00981009  RH  047%=      5-min Rain = 0
KNH1 141835Z 06009KT 10/M01 A304 RMK A01 T00971007  RH  048%=      5-min Rain = 0
KNH1 141836Z 06009KT 10/M00 A3039 RMK A01 T01011002  RH  049%=      5-min Rain = 0
KNH1 141837Z 06008KT 11/M00 A3039 RMK A01 T01051001  RH  048%=      5-min Rain = 0
KNH1 141838Z 07009KT 11/M00 A3039 RMK A01 T01061002  RH  047%=      5-min Rain = 0
KNH1 141839Z 06010KT 11/M01 A3039 RMK A01 T01051005  RH  047%=      5-min Rain = 0
KNH1 141840Z 07010KT 10/M01 A3039 RMK A01 T01031005  RH  047%=      5-min Rain = 0
KNH1 141841Z 07010KT 10/M01 A3039 RMK A01 T01021005  RH  047%=      5-min Rain = 0
KNH1 141842Z 08010KT 10/M01 A3039 RMK A01 T01011005  RH  048%=      5-min Rain = 0
KNH1 141843Z 07012KT 10/M00 A3039 RMK A01 T01011004  RH  048%=      5-min Rain = 0
KNH1 141844Z 06010KT 10/M01 A3039 RMK A01 T01011005  RH  048%=      5-min Rain = 0
KNH1 141845Z 05013KT 10/M01 A3039 RMK A01 T01011006  RH  047%=      5-min Rain = 0
KNH1 141846Z 05011KT 10/M01 A3039 RMK A01 T01001007  RH  048%=      5-min Rain = 0
KNH1 141847Z 06011KT 10/M00 A3039 RMK A01 T01001004  RH  048%=      5-min Rain = 0
KNH1 141848Z 08013KT 10/M01 A3039 RMK A01 T01021005  RH  047%=      5-min Rain = 0
KNH1 141849Z 08013KT 10/M01 A3039 RMK A01 T01011007  RH  047%=      5-min Rain = 0
KNH1 141850Z 07011KT 10/M01 A3039 RMK A01 T00971010  RH  047%=      5-min Rain = 0
KNH1 141851Z 07010KT 10/M01 A3039 RMK A01 T00961008  RH  048%=      5-min Rain = 0
KNH1 141852Z 05012KT 10/M01 A3039 RMK A01 T00981005  RH  049%=      5-min Rain = 0
KNH1 141853Z 04012KT 10/M01 A3039 RMK A01 T01001006  RH  048%=      5-min Rain = 0
KNH1 141854Z 05014KT 10/M01 A3039 RMK A01 T01011007  RH  047%=      5-min Rain = 0
KNH1 141855Z 07011KT 10/M01 A3039 RMK A01 T01011006  RH  047%=      5-min Rain = 0
KNH1 141856Z 07009KT 10/M01 A3039 RMK A01 T00991009  RH  047%=      5-min Rain = 0
KNH1 141857Z 06010KT 10/M01 A3038 RMK A01 T00981007  RH  048%=      5-min Rain = 0
KNH1 141858Z 05011KT 10/M01 A3038 RMK A01 T01001005  RH  048%=      5-min Rain = 0
KNH1 141859Z 04009KT 10/M01 A3038 RMK A01 T01001007  RH  047%=      5-min Rain = 0
KNH1 141900Z 05010KT 10/M01 A3038 RMK A01 T01001005  RH  048%=      5-min Rain = 0
KNH1 141901Z 06009KT 10/M01 A3038 RMK A01 T01011007  RH  047%=      5-min Rain = 0
KNH1 141902Z 05009KT 10/M01 A3038 RMK A01 T01011005  RH  048%=      5-min Rain = 0
KNH1 141903Z 06010G15KT 10/M01 A3038 RMK A01 T01011006  RH  047%=      5-min Rain = 0
KNH1 141904Z 06010KT 10/M01 A3038 RMK A01 T01001007  RH  047%=      5-min Rain = 0
KNH1 141905Z 06011KT 10/M01 A3038 RMK A01 T00991008  RH  047%=      5-min Rain = 0
KNH1 141906Z 06010G15KT 10/M01 A3038 RMK A01 T00991005  RH  048%=      5-min Rain = 0
KNH1 141907Z 08013KT 10/M01 A3038 RMK A01 T01011005  RH  047%=      5-min Rain = 0
KNH1 141908Z 07011KT 10/M01 A3038 RMK A01 T01011007  RH  047%=      5-min Rain = 0
KNH1 141909Z 07013KT 10/M01 A3038 RMK A01 T01001007  RH  047%=      5-min Rain = 0
KNH1 141910Z 07011KT 10/M01 A3038 RMK A01 T01011006  RH  047%=      5-min Rain = 0
KNH1 141911Z 08010KT 10/M01 A3038 RMK A01 T01011005  RH  048%=      5-min Rain = 0
KNH1 141912Z 08011KT 10/M00 A3038 RMK A01 T01021003  RH  048%=      5-min Rain = 0
KNH1 141913Z 07010G15KT 10/M00 A3038 RMK A01 T01031003  RH  048%=      5-min Rain = 0
KNH1 141914Z 07011KT 10/M00 A3038 RMK A01 T01041004  RH  047%=      5-min Rain = 0
KNH1 141915Z 08012KT 10/M01 A3038 RMK A01 T01031005  RH  047%=      5-min Rain = 0
KNH1 141916Z 07012KT 10/M01 A3038 RMK A01 T01021005  RH  047%=      5-min Rain = 0
KNH1 141917Z 07012KT 10/M01 A3038 RMK A01 T01031006  RH  047%=      5-min Rain = 0
KNH1 141918Z 07014KT 10/M01 A3038 RMK A01 T01041007  RH  046%=      5-min Rain = 0
KNH1 141919Z 07011KT 10/M01 A3038 RMK A01 T01031007  RH  046%=      5-min Rain = 0
KNH1 141920Z 07012KT 10/M01 A3038 RMK A01 T01021006  RH  047%=      5-min Rain = 0
KNH1 141921Z 05011KT 10/M01 A3038 RMK A01 T01021006  RH  047%=      5-min Rain = 0
KNH1 141922Z 05010KT 10/M01 A3038 RMK A01 T01031007  RH  046%=      5-min Rain = 0
KNH1 141923Z 05010G15KT 10/M01 A3038 RMK A01 T01031007  RH  046%=      5-min Rain = 0
KNH1 141924Z 05011KT 10/M01 A3038 RMK A01 T01021007  RH  046%=      5-min Rain = 0
KNH1 141925Z 07010KT 10/M01 A3038 RMK A01 T01031008  RH  046%=      5-min Rain = 0
KNH1 141926Z 07009KT 10/M01 A3038 RMK A01 T01041009  RH  046%=      5-min Rain = 0
KNH1 141927Z 06011KT 10/M01 A3038 RMK A01 T01041006  RH  046%=      5-min Rain = 0
KNH1 141928Z 07011KT 11/M01 A3038 RMK A01 T01061005  RH  046%=      5-min Rain = 0
KNH1 141929Z 05011KT 11/M01 A3037 RMK A01 T01071008  RH  045%=      5-min Rain = 0
KNH1 141930Z 05012KT 11/M01 A3037 RMK A01 T01061007  RH  045%=      5-min Rain = 0
KNH1 141931Z 04011KT 11/M01 A3037 RMK A01 T01071006  RH  046%=      5-min Rain = 0
KNH1 141932Z 05014KT 11/M01 A3037 RMK A01 T01071008  RH  045%=      5-min Rain = 0
KNH1 141933Z 05012KT 10/M01 A3037 RMK A01 T01041011  RH  045%=      5-min Rain = 0
KNH1 141934Z 05010G17KT 10/M01 A3037 RMK A01 T01021010  RH  046%=      5-min Rain = 0
KNH1 141935Z 05011G17KT 10/M01 A3037 RMK A01 T01021008  RH  046%=      5-min Rain = 0
KNH1 141936Z 06012KT 10/M01 A3037 RMK A01 T01031008  RH  046%=      5-min Rain = 0
KNH1 141937Z 08012KT 10/M01 A3037 RMK A01 T01041008  RH  046%=      5-min Rain = 0
KNH1 141938Z 05012KT 11/M01 A3037 RMK A01 T01051006  RH  046%=      5-min Rain = 0
KNH1 141939Z 06011KT 11/M01 A3037 RMK A01 T01061006  RH  046%=      5-min Rain = 0
KNH1 141940Z 05008KT 11/M01 A3037 RMK A01 T01071006  RH  046%=      5-min Rain = 0
KNH1 141941Z 05010KT 11/M01 A3037 RMK A01 T01061007  RH  045%=      5-min Rain = 0
KNH1 141942Z 07010KT 10/M01 A3037 RMK A01 T01041009  RH  045%=      5-min Rain = 0
KNH1 141943Z 08010KT 11/M01 A3037 RMK A01 T01051007  RH  046%=      5-min Rain = 0
KNH1 141944Z 07014KT 11/M01 A3037 RMK A01 T01051007  RH  046%=      5-min Rain = 0
KNH1 141945Z 07012KT 11/M01 A3037 RMK A01 T01051008  RH  045%=      5-min Rain = 0
KNH1 141946Z 08009KT 11/M01 A3037 RMK A01 T01051006  RH  046%=      5-min Rain = 0
KNH1 141947Z 07009KT 11/M01 A3037 RMK A01 T01061006  RH  046%=      5-min Rain = 0
KNH1 141948Z 07007KT 11/M01 A3037 RMK A01 T01071005  RH  046%=      5-min Rain = 0
KNH1 141949Z 07006KT 11/M01 A3037 RMK A01 T01081005  RH  046%=      5-min Rain = 0
KNH1 141950Z 05011KT 11/M01 A3037 RMK A01 T01091006  RH  045%=      5-min Rain = 0
KNH1 141951Z 08010KT 11/M01 A3037 RMK A01 T01081005  RH  045%=      5-min Rain = 0
KNH1 141952Z 07011KT 11/M01 A3037 RMK A01 T01081006  RH  045%=      5-min Rain = 0
KNH1 141953Z 07008KT 11/M01 A3037 RMK A01 T01061007  RH  045%=      5-min Rain = 0
KNH1 141954Z 07010KT 11/M01 A3037 RMK A01 T01061007  RH  046%=      5-min Rain = 0
KNH1 141955Z 07009KT 11/M01 A3037 RMK A01 T01051007  RH  046%=      5-min Rain = 0
KNH1 141956Z 09007KT 11/M00 A3037 RMK A01 T01061003  RH  047%=      5-min Rain = 0
KNH1 141957Z 07009KT 11/M01 A3037 RMK A01 T01071005  RH  046%=      5-min Rain = 0
KNH1 141958Z 07010KT 11/M01 A3037 RMK A01 T01071005  RH  046%=      5-min Rain = 0
KNH1 141959Z 07010KT 11/M01 A3037 RMK A01 T01071005  RH  046%=      5-min Rain = 0
KNH1 142000Z 07011KT 11/M00 A3037 RMK A01 T01071004  RH  046%=      5-min Rain = 0
KNH1 142001Z 07013KT 11/M01 A3037 RMK A01 T01091005  RH  045%=      5-min Rain = 0
KNH1 142002Z 06009KT 11/M01 A3037 RMK A01 T01071007  RH  045%=      5-min Rain = 0
KNH1 142003Z 07010KT 11/M01 A3037 RMK A01 T01071005  RH  046%=      5-min Rain = 0
KNH1 142004Z 07008KT 11/M00 A3037 RMK A01 T01081004  RH  046%=      5-min Rain = 0
KNH1 142005Z 07009KT 11/M01 A3037 RMK A01 T01081008  RH  045%=      5-min Rain = 0
KNH1 142006Z 09008KT 11/M01 A3037 RMK A01 T01071005  RH  046%=      5-min Rain = 0
KNH1 142007Z 08008KT 11/M01 A3037 RMK A01 T01061007  RH  045%=      5-min Rain = 0
KNH1 142008Z 08007KT 11/M01 A3037 RMK A01 T01061005  RH  046%=      5-min Rain = 0
KNH1 142009Z 08007KT 11/M01 A3037 RMK A01 T01061006  RH  046%=      5-min Rain = 0
KNH1 142010Z 06007KT 11/M01 A3037 RMK A01 T01061006  RH  046%=      5-min Rain = 0
KNH1 142011Z 06011KT 11/M01 A3037 RMK A01 T01071005  RH  046%=      5-min Rain = 0
KNH1 142012Z 06010KT 11/M01 A3037 RMK A01 T01081010  RH  044%=      5-min Rain = 0
KNH1 142013Z 05011KT 11/M01 A3037 RMK A01 T01081010  RH  044%=      5-min Rain = 0
KNH1 142014Z 04010KT 11/M01 A3037 RMK A01 T01081009  RH  044%=      5-min Rain = 0
KNH1 142015Z 04009KT 11/M01 A3037 RMK A01 T01081010  RH  044%=      5-min Rain = 0
KNH1 142016Z 04010KT 11/M01 A3037 RMK A01 T01071011  RH  044%=      5-min Rain = 0
KNH1 142017Z 06011KT 11/M01 A3037 RMK A01 T01061010  RH  044%=      5-min Rain = 0
KNH1 142018Z 06009KT 11/M01 A3037 RMK A01 T01061011  RH  044%=      5-min Rain = 0
KNH1 142019Z 07008KT 11/M01 A3037 RMK A01 T01061011  RH  044%=      5-min Rain = 0
KNH1 142020Z 08009KT 11/M01 A3037 RMK A01 T01051010  RH  045%=      5-min Rain = 0
KNH1 142021Z 07009KT 11/M01 A3037 RMK A01 T01061008  RH  045%=      5-min Rain = 0
KNH1 142022Z 06008KT 11/M01 A3037 RMK A01 T01071008  RH  045%=      5-min Rain = 0
KNH1 142023Z 05008KT 11/M01 A3037 RMK A01 T01061010  RH  044%=      5-min Rain = 0
KNH1 142024Z 05008KT 11/M01 A3036 RMK A01 T01071007  RH  045%=      5-min Rain = 0
KNH1 142025Z 05011KT 11/M01 A3036 RMK A01 T01081008  RH  044%=      5-min Rain = 0
KNH1 142026Z 05008KT 11/M01 A3036 RMK A01 T01081008  RH  044%=      5-min Rain = 0
KNH1 142027Z 06006KT 11/M01 A3037 RMK A01 T01091006  RH  045%=      5-min Rain = 0
KNH1 142028Z 08006KT 11/M01 A3037 RMK A01 T01111006  RH  045%=      5-min Rain = 0
KNH1 142029Z 08007KT 11/M01 A3036 RMK A01 T01101007  RH  044%=      5-min Rain = 0
KNH1 142030Z 07008KT 11/M01 A3036 RMK A01 T01101005  RH  045%=      5-min Rain = 0
KNH1 142031Z 07009KT 11/M01 A3036 RMK A01 T01101009  RH  044%=      5-min Rain = 0
KNH1 142032Z 06010KT 11/M01 A3036 RMK A01 T01081010  RH  044%=      5-min Rain = 0
KNH1 142033Z 05006KT 11/M01 A3036 RMK A01 T01081009  RH  044%=      5-min Rain = 0
KNH1 142034Z 06007KT 11/M01 A3036 RMK A01 T01081008  RH  045%=      5-min Rain = 0
KNH1 142035Z 05009KT 11/M01 A3036 RMK A01 T01081009  RH  044%=      5-min Rain = 0
KNH1 142036Z 05009KT 11/M01 A3036 RMK A01 T01081009  RH  044%=      5-min Rain = 0
KNH1 142037Z 06007KT 11/M01 A3036 RMK A01 T01081008  RH  044%=      5-min Rain = 0
KNH1 142038Z 07007KT 11/M01 A3036 RMK A01 T01081008  RH  044%=      5-min Rain = 0
KNH1 142039Z 08006KT 11/M01 A3036 RMK A01 T01081008  RH  045%=      5-min Rain = 0
KNH1 142040Z 09005KT 11/M01 A3036 RMK A01 T01071007  RH  045%=      5-min Rain = 0
KNH1 142041Z 06008KT 11/M01 A3036 RMK A01 T01091006  RH  045%=      5-min Rain = 0
KNH1 142042Z 06011KT 11/M01 A3036 RMK A01 T01091009  RH  044%=      5-min Rain = 0
KNH1 142043Z 05011KT 11/M01 A3036 RMK A01 T01091010  RH  044%=      5-min Rain = 0
KNH1 142044Z 04009KT 11/M01 A3036 RMK A01 T01081011  RH  044%=      5-min Rain = 0
KNH1 142045Z 03008KT 11/M01 A3036 RMK A01 T01081011  RH  044%=      5-min Rain = 0
KNH1 142046Z 03008KT 11/M01 A3036 RMK A01 T01071012  RH  043%=      5-min Rain = 0
KNH1 142047Z 06011KT 11/M01 A3036 RMK A01 T01071011  RH  044%=      5-min Rain = 0
KNH1 142048Z 05009KT 11/M01 A3036 RMK A01 T01081012  RH  043%=      5-min Rain = 0
KNH1 142049Z 06012KT 11/M01 A3036 RMK A01 T01091011  RH  043%=      5-min Rain = 0
KNH1 142050Z 06010KT 11/M01 A3036 RMK A01 T01081014  RH  043%=      5-min Rain = 0
KNH1 142051Z 06009KT 11/M01 A3036 RMK A01 T01081011  RH  044%=      5-min Rain = 0
KNH1 142052Z 06009KT 11/M01 A3036 RMK A01 T01081011  RH  044%=      5-min Rain = 0
KNH1 142053Z 07009KT 11/M01 A3036 RMK A01 T01101008  RH  044%=      5-min Rain = 0
KNH1 142054Z 07007KT 11/M01 A3036 RMK A01 T01101012  RH  043%=      5-min Rain = 0
KNH1 142055Z 08008KT 11/M01 A3036 RMK A01 T01081010  RH  044%=      5-min Rain = 0
KNH1 142056Z 08009KT 11/M01 A3036 RMK A01 T01081009  RH  044%=      5-min Rain = 0
KNH1 142057Z 06009KT 11/M01 A3036 RMK A01 T01091009  RH  044%=      5-min Rain = 0
KNH1 142058Z 06011KT 11/M01 A3036 RMK A01 T01091010  RH  044%=      5-min Rain = 0
KNH1 142059Z 07009KT 11/M01 A3036 RMK A01 T01101011  RH  043%=      5-min Rain = 0
KNH1 142100Z 06008KT 11/M01 A3036 RMK A01 T01101009  RH  044%=      5-min Rain = 0
KNH1 142101Z 06008KT 11/M01 A3036 RMK A01 T01101009  RH  044%=      5-min Rain = 0
KNH1 142102Z 07008KT 11/M01 A3036 RMK A01 T01101010  RH  043%=      5-min Rain = 0
KNH1 142103Z 09007KT 11/M01 A3036 RMK A01 T01091010  RH  044%=      5-min Rain = 0
KNH1 142104Z 06006KT 11/M01 A3036 RMK A01 T01091008  RH  044%=      5-min Rain = 0
KNH1 142105Z 07006KT 11/M01 A3036 RMK A01 T01091010  RH  044%=      5-min Rain = 0
KNH1 142106Z 07007KT 11/M01 A3036 RMK A01 T01101007  RH  045%=      5-min Rain = 0
KNH1 142107Z 07007KT 11/M01 A3036 RMK A01 T01111007  RH  044%=      5-min Rain = 0
KNH1 142108Z 08007KT 11/M01 A3036 RMK A01 T01111006  RH  044%=      5-min Rain = 0
KNH1 142109Z 09007KT 11/M00 A3036 RMK A01 T01111004  RH  045%=      5-min Rain = 0
KNH1 142110Z 05006KT 11/M01 A3036 RMK A01 T01131005  RH  044%=      5-min Rain = 0
KNH1 142111Z 06008KT 11/M01 A3036 RMK A01 T01141007  RH  043%=      5-min Rain = 0
KNH1 142112Z 06007KT 11/M01 A3036 RMK A01 T01131009  RH  043%=      5-min Rain = 0
KNH1 142113Z 06006KT 11/M01 A3036 RMK A01 T01121008  RH  043%=      5-min Rain = 0
KNH1 142114Z 07007KT 11/M01 A3036 RMK A01 T01121009  RH  043%=      5-min Rain = 0
KNH1 142115Z 07009KT 11/M01 A3036 RMK A01 T01121009  RH  043%=      5-min Rain = 0
KNH1 142116Z 07008KT 11/M01 A3036 RMK A01 T01121008  RH  043%=      5-min Rain = 0
KNH1 142117Z 07008KT 11/M01 A3036 RMK A01 T01111011  RH  043%=      5-min Rain = 0
KNH1 142118Z 06008KT 11/M01 A3036 RMK A01 T01101008  RH  044%=      5-min Rain = 0
KNH1 142119Z 04006KT 11/M01 A3036 RMK A01 T01121005  RH  044%=      5-min Rain = 0
KNH1 142120Z 04006KT 11/M01 A3036 RMK A01 T01131008  RH  043%=      5-min Rain = 0
KNH1 142121Z 06005KT 11/M01 A3036 RMK A01 T01121008  RH  043%=      5-min Rain = 0
KNH1 142122Z 07009KT 11/M01 A3036 RMK A01 T01111008  RH  044%=      5-min Rain = 0
KNH1 142123Z 09008KT 11/M01 A3036 RMK A01 T01121010  RH  043%=      5-min Rain = 0
KNH1 142124Z 07009KT 11/M01 A3036 RMK A01 T01111009  RH  043%=      5-min Rain = 0
KNH1 142125Z 07008KT 11/M01 A3036 RMK A01 T01111009  RH  043%=      5-min Rain = 0
KNH1 142126Z 06008KT 11/M01 A3036 RMK A01 T01111009  RH  043%=      5-min Rain = 0
KNH1 142127Z 07005KT 11/M01 A3036 RMK A01 T01101011  RH  043%=      5-min Rain = 0
KNH1 142128Z 07006KT 11/M01 A3036 RMK A01 T01101007  RH  044%=      5-min Rain = 0
KNH1 142129Z 08008KT 11/M01 A3036 RMK A01 T01111008  RH  044%=      5-min Rain = 0
KNH1 142130Z 08006KT 11/M01 A3036 RMK A01 T01111011  RH  043%=      5-min Rain = 0
KNH1 142131Z 07006KT 11/M01 A3036 RMK A01 T01101011  RH  043%=      5-min Rain = 0
KNH1 142132Z 07007KT 11/M01 A3036 RMK A01 T01101006  RH  044%=      5-min Rain = 0
KNH1 142133Z 08006KT 11/M01 A3036 RMK A01 T01121005  RH  044%=      5-min Rain = 0
KNH1 142134Z 08007KT 11/M01 A3036 RMK A01 T01131008  RH  043%=      5-min Rain = 0
KNH1 142135Z 08007KT 11/M01 A3036 RMK A01 T01121010  RH  043%=      5-min Rain = 0
KNH1 142136Z 09007KT 11/M01 A3036 RMK A01 T01101010  RH  043%=      5-min Rain = 0
KNH1 142137Z 09008KT 11/M01 A3036 RMK A01 T01101010  RH  043%=      5-min Rain = 0
KNH1 142138Z 05007KT 11/M01 A3036 RMK A01 T01101009  RH  044%=      5-min Rain = 0
KNH1 142139Z 05009KT 11/M01 A3036 RMK A01 T01111009  RH  043%=      5-min Rain = 0
KNH1 142140Z 05010KT 11/M01 A3036 RMK A01 T01111009  RH  043%=      5-min Rain = 0
KNH1 142141Z 05007KT 11/M01 A3036 RMK A01 T01101010  RH  043%=      5-min Rain = 0
KNH1 142142Z 05006KT 11/M01 A3036 RMK A01 T01101009  RH  044%=      5-min Rain = 0
KNH1 142143Z 05006KT 11/M01 A3036 RMK A01 T01111010  RH  043%=      5-min Rain = 0
KNH1 142144Z 05007KT 11/M01 A3036 RMK A01 T01101010  RH  043%=      5-min Rain = 0
KNH1 142145Z 05006KT 11/M01 A3036 RMK A01 T01111007  RH  044%=      5-min Rain = 0
KNH1 142146Z 05008KT 11/M01 A3036 RMK A01 T01121009  RH  043%=      5-min Rain = 0
KNH1 142147Z 04009KT 11/M01 A3036 RMK A01 T01111011  RH  043%=      5-min Rain = 0
KNH1 142148Z 05009KT 11/M01 A3036 RMK A01 T01111011  RH  043%=      5-min Rain = 0
KNH1 142149Z 07008KT 11/M01 A3036 RMK A01 T01101010  RH  043%=      5-min Rain = 0
KNH1 142150Z 07009KT 11/M01 A3036 RMK A01 T01101010  RH  043%=      5-min Rain = 0
KNH1 142151Z 07008KT 11/M01 A3036 RMK A01 T01101012  RH  042%=      5-min Rain = 0
KNH1 142152Z 07007KT 11/M01 A3036 RMK A01 T01091012  RH  043%=      5-min Rain = 0
KNH1 142153Z 07008KT 11/M01 A3036 RMK A01 T01091010  RH  043%=      5-min Rain = 0
KNH1 142154Z 06007KT 11/M01 A3037 RMK A01 T01101011  RH  043%=      5-min Rain = 0
KNH1 142155Z 05007KT 11/M01 A3036 RMK A01 T01101011  RH  043%=      5-min Rain = 0
KNH1 142156Z 05007KT 11/M01 A3036 RMK A01 T01101011  RH  043%=      5-min Rain = 0
KNH1 142157Z 06008KT 11/M01 A3036 RMK A01 T01091010  RH  043%=      5-min Rain = 0
KNH1 142158Z 06009KT 11/M01 A3036 RMK A01 T01101010  RH  043%=      5-min Rain = 0
KNH1 142159Z 06007KT 11/M01 A3036 RMK A01 T01101010  RH  043%=      5-min Rain = 0
KNH1 142200Z 06005KT 11/M01 A3036 RMK A01 T01091011  RH  043%=      5-min Rain = 0
KNH1 142201Z 05005KT 11/M01 A3036 RMK A01 T01091010  RH  044%=      5-min Rain = 0
KNH1 142202Z 07005KT 11/M01 A3036 RMK A01 T01101007  RH  044%=      5-min Rain = 0
KNH1 142203Z 07007KT 11/M01 A3036 RMK A01 T01111005  RH  044%=      5-min Rain = 0
KNH1 142204Z 05007KT 11/M01 A3036 RMK A01 T01121008  RH  044%=      5-min Rain = 0
KNH1 142205Z 05006KT 11/M01 A3036 RMK A01 T01101011  RH  043%=      5-min Rain = 0
KNH1 142206Z 05007KT 11/M01 A3037 RMK A01 T01091010  RH  044%=      5-min Rain = 0
KNH1 142207Z 05008KT 11/M01 A3037 RMK A01 T01101011  RH  043%=      5-min Rain = 0
KNH1 142208Z 04007KT 11/M01 A3037 RMK A01 T01091010  RH  044%=      5-min Rain = 0
KNH1 142209Z 03008KT 11/M01 A3037 RMK A01 T01091009  RH  044%=      5-min Rain = 0
KNH1 142210Z 03007KT 11/M01 A3037 RMK A01 T01101010  RH  043%=      5-min Rain = 0
KNH1 142211Z 03006KT 11/M01 A3037 RMK A01 T01101009  RH  044%=      5-min Rain = 0
KNH1 142212Z 05007KT 11/M01 A3037 RMK A01 T01101009  RH  044%=      5-min Rain = 0
KNH1 142213Z 04006KT 11/M01 A3037 RMK A01 T01101010  RH  043%=      5-min Rain = 0
KNH1 142214Z 06006KT 11/M01 A3037 RMK A01 T01101009  RH  043%=      5-min Rain = 0
KNH1 142215Z 06007KT 11/M01 A3037 RMK A01 T01111009  RH  043%=      5-min Rain = 0
KNH1 142216Z 06007KT 11/M01 A3037 RMK A01 T01111011  RH  043%=      5-min Rain = 0
KNH1 142217Z 04006KT 11/M01 A3037 RMK A01 T01101010  RH  044%=      5-min Rain = 0
KNH1 142218Z 05007KT 11/M01 A3037 RMK A01 T01101009  RH  044%=      5-min Rain = 0
KNH1 142219Z 06005KT 11/M01 A3037 RMK A01 T01101009  RH  044%=      5-min Rain = 0
KNH1 142220Z 05008KT 11/M01 A3037 RMK A01 T01101008  RH  044%=      5-min Rain = 0
KNH1 142221Z 06009KT 11/M01 A3037 RMK A01 T01101009  RH  044%=      5-min Rain = 0
KNH1 142222Z 06009KT 11/M01 A3037 RMK A01 T01091009  RH  044%=      5-min Rain = 0
KNH1 142223Z 05010KT 11/M01 A3037 RMK A01 T01091009  RH  044%=      5-min Rain = 0
KNH1 142224Z 05009KT 11/M01 A3037 RMK A01 T01081010  RH  044%=      5-min Rain = 0
KNH1 142225Z 06006KT 11/M01 A3037 RMK A01 T01081011  RH  044%=      5-min Rain = 0
KNH1 142226Z 04006KT 11/M01 A3037 RMK A01 T01071010  RH  044%=      5-min Rain = 0
KNH1 142227Z 06006KT 11/M01 A3037 RMK A01 T01071008  RH  045%=      5-min Rain = 0
KNH1 142228Z 06007KT 11/M01 A3037 RMK A01 T01081008  RH  044%=      5-min Rain = 0
KNH1 142229Z 07006KT 11/M01 A3037 RMK A01 T01081009  RH  044%=      5-min Rain = 0
KNH1 142230Z 07005KT 11/M01 A3037 RMK A01 T01081009  RH  044%=      5-min Rain = 0
KNH1 142231Z 08006KT 11/M01 A3037 RMK A01 T01081010  RH  044%=      5-min Rain = 0
KNH1 142232Z 08005KT 11/M01 A3037 RMK A01 T01081009  RH  044%=      5-min Rain = 0
KNH1 142233Z 07005KT 11/M01 A3037 RMK A01 T01071008  RH  045%=      5-min Rain = 0
KNH1 142234Z 07006KT 11/M01 A3037 RMK A01 T01081008  RH  045%=      5-min Rain = 0
KNH1 142235Z 07005KT 11/M01 A3037 RMK A01 T01071009  RH  044%=      5-min Rain = 0
KNH1 142236Z 06006KT 11/M01 A3037 RMK A01 T01071009  RH  045%=      5-min Rain = 0
KNH1 142237Z 06006KT 11/M01 A3037 RMK A01 T01071010  RH  044%=      5-min Rain = 0
KNH1 142238Z 07005KT 11/M01 A3037 RMK A01 T01071010  RH  044%=      5-min Rain = 0
KNH1 142239Z 08006KT 11/M01 A3037 RMK A01 T01071007  RH  045%=      5-min Rain = 0
KNH1 142240Z 07006KT 11/M01 A3037 RMK A01 T01071006  RH  046%=      5-min Rain = 0
KNH1 142241Z 08009KT 11/M01 A3037 RMK A01 T01071006  RH  045%=      5-min Rain = 0
KNH1 142242Z 07007KT 11/M01 A3037 RMK A01 T01071008  RH  045%=      5-min Rain = 0
KNH1 142243Z 07005KT 11/M01 A3037 RMK A01 T01061006  RH  046%=      5-min Rain = 0
KNH1 142244Z 08006KT 11/M01 A3037 RMK A01 T01071006  RH  046%=      5-min Rain = 0
KNH1 142245Z 07007KT 11/M01 A3037 RMK A01 T01061006  RH  046%=      5-min Rain = 0
KNH1 142246Z 07007KT 11/M01 A3037 RMK A01 T01061007  RH  045%=      5-min Rain = 0
KNH1 142247Z 06007KT 11/M01 A3037 RMK A01 T01061007  RH  045%=      5-min Rain = 0
KNH1 142248Z 07007KT 11/M01 A3037 RMK A01 T01061008  RH  045%=      5-min Rain = 0
KNH1 142249Z 06006KT 11/M01 A3037 RMK A01 T01061007  RH  046%=      5-min Rain = 0
KNH1 142250Z 05005KT 11/M01 A3037 RMK A01 T01051008  RH  045%=      5-min Rain = 0
KNH1 142251Z 07005KT 11/M01 A3037 RMK A01 T01061007  RH  045%=      5-min Rain = 0
KNH1 142252Z 07006KT 11/M01 A3037 RMK A01 T01051007  RH  046%=      5-min Rain = 0
KNH1 142253Z 06005KT 11/M01 A3037 RMK A01 T01051009  RH  045%=      5-min Rain = 0
KNH1 142254Z 06004KT 11/M01 A3037 RMK A01 T01051007  RH  046%=      5-min Rain = 0
KNH1 142255Z 06005KT 11/M01 A3037 RMK A01 T01051007  RH  046%=      5-min Rain = 0
KNH1 142256Z 07005KT 11/M01 A3037 RMK A01 T01051008  RH  046%=      5-min Rain = 0
KNH1 142257Z 08006KT 11/M01 A3037 RMK A01 T01051008  RH  046%=      5-min Rain = 0
KNH1 142258Z 07005KT 10/M01 A3037 RMK A01 T01041008  RH  046%=      5-min Rain = 0
KNH1 142259Z 08003KT 10/M01 A3037 RMK A01 T01041007  RH  046%=      5-min Rain = 0
KNH1 142300Z 09004KT 10/M01 A3037 RMK A01 T01031008  RH  046%=      5-min Rain = 0
KNH1 142301Z 09004KT 10/M01 A3037 RMK A01 T01031009  RH  046%=      5-min Rain = 0
KNH1 142302Z 07004KT 10/M01 A3037 RMK A01 T01021009  RH  046%=      5-min Rain = 0
KNH1 142303Z 07004KT 10/M01 A3037 RMK A01 T01021009  RH  046%=      5-min Rain = 0
KNH1 142304Z 07004KT 10/M01 A3037 RMK A01 T01021009  RH  046%=      5-min Rain = 0
KNH1 142305Z 06005KT 10/M01 A3037 RMK A01 T01021009  RH  046%=      5-min Rain = 0
KNH1 142306Z 06005KT 10/M01 A3037 RMK A01 T01021010  RH  046%=      5-min Rain = 0
KNH1 142307Z 06006KT 10/M01 A3037 RMK A01 T01021010  RH  045%=      5-min Rain = 0
KNH1 142308Z 07005KT 10/M01 A3037 RMK A01 T01021010  RH  046%=      5-min Rain = 0
KNH1 142309Z 06005KT 10/M01 A3037 RMK A01 T01021009  RH  046%=      5-min Rain = 0
KNH1 142310Z 07004KT 10/M01 A3037 RMK A01 T01021009  RH  046%=      5-min Rain = 0
KNH1 142311Z 07004KT 10/M01 A3037 RMK A01 T01021008  RH  046%=      5-min Rain = 0
KNH1 142312Z 06005KT 10/M01 A3037 RMK A01 T01021009  RH  046%=      5-min Rain = 0
KNH1 142313Z 07005KT 10/M01 A3037 RMK A01 T01011010  RH  046%=      5-min Rain = 0
KNH1 142314Z 05004KT 10/M01 A3037 RMK A01 T01011010  RH  046%=      5-min Rain = 0
KNH1 142315Z 06004KT 10/M01 A3037 RMK A01 T01021008  RH  046%=      5-min Rain = 0
KNH1 142316Z 06004KT 10/M01 A3037 RMK A01 T01011009  RH  047%=      5-min Rain = 0
KNH1 142317Z 06004KT 10/M01 A3037 RMK A01 T01001009  RH  046%=      5-min Rain = 0
KNH1 142318Z 07005KT 10/M01 A3037 RMK A01 T01001007  RH  047%=      5-min Rain = 0
KNH1 142319Z 06005KT 10/M01 A3037 RMK A01 T01001008  RH  047%=      5-min Rain = 0
KNH1 142320Z 07004KT 10/M01 A3037 RMK A01 T01001009  RH  047%=      5-min Rain = 0
KNH1 142321Z 06004KT 10/M01 A3037 RMK A01 T01001008  RH  047%=      5-min Rain = 0
KNH1 142322Z 07004KT 10/M01 A3037 RMK A01 T00991008  RH  047%=      5-min Rain = 0
KNH1 142323Z 07005KT 10/M01 A3037 RMK A01 T00981007  RH  048%=      5-min Rain = 0
KNH1 142324Z 07004KT 10/M01 A3038 RMK A01 T00971007  RH  048%=      5-min Rain = 0
KNH1 142325Z 07004KT 10/M01 A3038 RMK A01 T00971007  RH  048%=      5-min Rain = 0
KNH1 142326Z 07003KT 10/M01 A3038 RMK A01 T00961007  RH  049%=      5-min Rain = 0
KNH1 142327Z 07003KT 10/M01 A3038 RMK A01 T00951007  RH  049%=      5-min Rain = 0
KNH1 142328Z 07003KT 10/M01 A3038 RMK A01 T00951008  RH  049%=      5-min Rain = 0
KNH1 142329Z 06003KT 09/M01 A3038 RMK A01 T00941008  RH  049%=      5-min Rain = 0
KNH1 142330Z 07003KT 09/M01 A3038 RMK A01 T00941006  RH  049%=      5-min Rain = 0
KNH1 142331Z 07004KT 09/M01 A3038 RMK A01 T00941006  RH  050%=      5-min Rain = 0
KNH1 142332Z 07004KT 09/M01 A3038 RMK A01 T00931007  RH  050%=      5-min Rain = 0
KNH1 142333Z 07003KT 09/M01 A3038 RMK A01 T00931005  RH  050%=      5-min Rain = 0
KNH1 142334Z 07004KT 09/M01 A3038 RMK A01 T00921005  RH  051%=      5-min Rain = 0
KNH1 142335Z 07004KT 09/M01 A3038 RMK A01 T00911005  RH  051%=      5-min Rain = 0
KNH1 142336Z 07004KT 09/M00 A3038 RMK A01 T00901004  RH  052%=      5-min Rain = 0
KNH1 142337Z 07004KT 09/M01 A3038 RMK A01 T00891005  RH  052%=      5-min Rain = 0
KNH1 142338Z 07004KT 09/M00 A3038 RMK A01 T00881004  RH  052%=      5-min Rain = 0
KNH1 142339Z 07004KT 09/M00 A3038 RMK A01 T00881004  RH  052%=      5-min Rain = 0
KNH1 142340Z 08004KT 09/M00 A3038 RMK A01 T00881004  RH  052%=      5-min Rain = 0
KNH1 142341Z 08004KT 09/M01 A3038 RMK A01 T00871005  RH  053%=      5-min Rain = 0
KNH1 142342Z 08004KT 09/M00 A3038 RMK A01 T00861004  RH  053%=      5-min Rain = 0
KNH1 142343Z 08004KT 09/M00 A3038 RMK A01 T00851004  RH  053%=      5-min Rain = 0
KNH1 142344Z 08004KT 09/M00 A3038 RMK A01 T00851004  RH  054%=      5-min Rain = 0
KNH1 142345Z 08004KT 08/M00 A3038 RMK A01 T00841004  RH  054%=      5-min Rain = 0
KNH1 142346Z 08004KT 08/M00 A3038 RMK A01 T00831004  RH  054%=      5-min Rain = 0
KNH1 142347Z 08003KT 08/M00 A3038 RMK A01 T00821004  RH  055%=      5-min Rain = 0
KNH1 142348Z 08003KT 08/M00 A3038 RMK A01 T00821004  RH  055%=      5-min Rain = 0
KNH1 142349Z 08003KT 08/M00 A3038 RMK A01 T00811004  RH  055%=      5-min Rain = 0
KNH1 142350Z 08003KT 08/M00 A3038 RMK A01 T00811004  RH  055%=      5-min Rain = 0
KNH1 142351Z 07003KT 08/M00 A3038 RMK A01 T00811004  RH  055%=      5-min Rain = 0
KNH1 142352Z 08003KT 08/M00 A3038 RMK A01 T00801004  RH  055%=      5-min Rain = 0
KNH1 142353Z 08003KT 08/M00 A3038 RMK A01 T00801004  RH  055%=      5-min Rain = 0
KNH1 142354Z 08003KT 08/M00 A3038 RMK A01 T00791004  RH  056%=      5-min Rain = 0
KNH1 142355Z 08003KT 08/M00 A3038 RMK A01 T00791004  RH  056%=      5-min Rain = 0
KNH1 142356Z 08003KT 08/M00 A3038 RMK A01 T00781003  RH  056%=      5-min Rain = 0
KNH1 142357Z 08002KT 08/M00 A3039 RMK A01 T00781003  RH  057%=      5-min Rain = 0
KNH1 142358Z 08002KT 08/M00 A3039 RMK A01 T00771003  RH  057%=      5-min Rain = 0
KNH1 142359Z 08002KT 08/M00 A3039 RMK A01 T00761003  RH  057%=      5-min Rain = 0
KNH1 150000Z 09002KT 08/M00 A3039 RMK A01 T00761002  RH  058%=      5-min Rain = 0
KNH1 150001Z 09002KT 08/M00 A3039 RMK A01 T00751003  RH  058%=      5-min Rain = 0
KNH1 150002Z 10002KT 08/M00 A3039 RMK A01 T00751003  RH  058%=      5-min Rain = 0
KNH1 150003Z 10002KT 07/M00 A3039 RMK A01 T00741004  RH  058%=      5-min Rain = 0
KNH1 150004Z 10002KT 07/M00 A3039 RMK A01 T00741004  RH  058%=      5-min Rain = 0
KNH1 150005Z 10003KT 07/M00 A3039 RMK A01 T00741003  RH  058%=      5-min Rain = 0
KNH1 150006Z 09002KT 07/M00 A3039 RMK A01 T00741002  RH  058%=      5-min Rain = 0
KNH1 150007Z 09003KT 07/M00 A3039 RMK A01 T00741002  RH  059%=      5-min Rain = 0
KNH1 150008Z 09003KT 07/M00 A3039 RMK A01 T00731002  RH  059%=      5-min Rain = 0
KNH1 150009Z 09003KT 07/M00 A3039 RMK A01 T00721003  RH  059%=      5-min Rain = 0
KNH1 150010Z 09003KT 07/M00 A3039 RMK A01 T00721004  RH  059%=      5-min Rain = 0
KNH1 150011Z 09003KT 07/M00 A3039 RMK A01 T00721004  RH  059%=      5-min Rain = 0
KNH1 150012Z 09003KT 07/M00 A3039 RMK A01 T00711003  RH  059%=      5-min Rain = 0
KNH1 150013Z 09002KT 07/M00 A3039 RMK A01 T00711003  RH  059%=      5-min Rain = 0
KNH1 150014Z 10003KT 07/M00 A3039 RMK A01 T00711003  RH  059%=      5-min Rain = 0
KNH1 150015Z 10003KT 07/M00 A3039 RMK A01 T00711003  RH  059%=      5-min Rain = 0
KNH1 150016Z 10003KT 07/M00 A3039 RMK A01 T00711003  RH  060%=      5-min Rain = 0
KNH1 150017Z 10003KT 07/M00 A304 RMK A01 T00701003  RH  060%=      5-min Rain = 0
KNH1 150018Z 10003KT 07/M00 A3039 RMK A01 T00701004  RH  059%=      5-min Rain = 0
KNH1 150019Z 11003KT 07/M00 A3039 RMK A01 T00711004  RH  059%=      5-min Rain = 0
KNH1 150020Z 11003KT 07/M00 A304 RMK A01 T00711004  RH  059%=      5-min Rain = 0
KNH1 150021Z 11003KT 07/M00 A304 RMK A01 T00711003  RH  059%=      5-min Rain = 0
KNH1 150022Z 11002KT 07/M00 A304 RMK A01 T00711003  RH  059%=      5-min Rain = 0
KNH1 150023Z 11003KT 07/M00 A304 RMK A01 T00711002  RH  060%=      5-min Rain = 0
KNH1 150024Z 11003KT 07/M00 A304 RMK A01 T00701002  RH  060%=      5-min Rain = 0
KNH1 150025Z 11003KT 07/M00 A304 RMK A01 T00701002  RH  060%=      5-min Rain = 0
KNH1 150026Z 11003KT 07/M00 A304 RMK A01 T00691002  RH  060%=      5-min Rain = 0
KNH1 150027Z 11003KT 07/M00 A304 RMK A01 T00691002  RH  061%=      5-min Rain = 0
KNH1 150028Z 11003KT 07/M00 A304 RMK A01 T00681002  RH  061%=      5-min Rain = 0
KNH1 150029Z 11003KT 07/M00 A304 RMK A01 T00681002  RH  061%=      5-min Rain = 0
KNH1 150030Z 11003KT 07/M00 A304 RMK A01 T00671002  RH  062%=      5-min Rain = 0
KNH1 150031Z 11002KT 07/M00 A304 RMK A01 T00661001  RH  062%=      5-min Rain = 0
KNH1 150032Z 11003KT 07/M00 A304 RMK A01 T00651002  RH  062%=      5-min Rain = 0
KNH1 150033Z 11002KT 06/M00 A304 RMK A01 T00641002  RH  063%=      5-min Rain = 0
KNH1 150034Z 11003KT 06/M00 A304 RMK A01 T00631002  RH  063%=      5-min Rain = 0
KNH1 150035Z 11003KT 06/M00 A304 RMK A01 T00621002  RH  063%=      5-min Rain = 0
KNH1 150036Z 11003KT 06/M00 A304 RMK A01 T00621002  RH  064%=      5-min Rain = 0
KNH1 150037Z 12002KT 06/M00 A304 RMK A01 T00611003  RH  064%=      5-min Rain = 0
KNH1 150038Z 12002KT 06/M00 A304 RMK A01 T00601004  RH  064%=      5-min Rain = 0
KNH1 150039Z 12002KT 06/M00 A304 RMK A01 T00591003  RH  064%=      5-min Rain = 0
KNH1 150040Z 12002KT 06/M00 A304 RMK A01 T00591003  RH  065%=      5-min Rain = 0
KNH1 150041Z 11003KT 06/M00 A304 RMK A01 T00591002  RH  065%=      5-min Rain = 0
KNH1 150042Z 11003KT 06/M00 A304 RMK A01 T00581002  RH  065%=      5-min Rain = 0
KNH1 150043Z 11003KT 06/M00 A304 RMK A01 T00581004  RH  065%=      5-min Rain = 0
KNH1 150044Z 11003KT 06/M00 A304 RMK A01 T00591004  RH  064%=      5-min Rain = 0
KNH1 150045Z 11003KT 06/M00 A304 RMK A01 T00591004  RH  064%=      5-min Rain = 0
KNH1 150046Z 11003KT 06/M00 A304 RMK A01 T00591003  RH  064%=      5-min Rain = 0
KNH1 150047Z 11003KT 06/M00 A304 RMK A01 T00591003  RH  064%=      5-min Rain = 0
KNH1 150048Z 11003KT 06/M00 A304 RMK A01 T00591003  RH  064%=      5-min Rain = 0
KNH1 150049Z 11003KT 06/M00 A304 RMK A01 T00581004  RH  064%=      5-min Rain = 0
KNH1 150050Z 11003KT 06/M00 A3041 RMK A01 T00581004  RH  065%=      5-min Rain = 0
KNH1 150051Z 11003KT 06/M00 A3041 RMK A01 T00571003  RH  065%=      5-min Rain = 0
KNH1 150052Z 11003KT 06/M00 A3041 RMK A01 T00571003  RH  065%=      5-min Rain = 0
KNH1 150053Z 11003KT 06/M00 A3041 RMK A01 T00571003  RH  065%=      5-min Rain = 0
KNH1 150054Z 11003KT 06/M00 A3041 RMK A01 T00561004  RH  065%=      5-min Rain = 0
KNH1 150055Z 11003KT 06/M00 A3041 RMK A01 T00561004  RH  065%=      5-min Rain = 0
KNH1 150056Z 11003KT 06/M00 A3041 RMK A01 T00561004  RH  065%=      5-min Rain = 0
KNH1 150057Z 11003KT 06/M00 A3041 RMK A01 T00571004  RH  065%=      5-min Rain = 0
KNH1 150058Z 12003KT 06/M00 A3041 RMK A01 T00561004  RH  065%=      5-min Rain = 0
KNH1 150059Z 12003KT 06/M00 A3041 RMK A01 T00561004  RH  065%=      5-min Rain = 0
KNH1 150100Z 12003KT 06/M00 A3041 RMK A01 T00561004  RH  065%=      5-min Rain = 0
KNH1 150101Z 12003KT 06/M00 A3041 RMK A01 T00571003  RH  065%=      5-min Rain = 0
KNH1 150102Z 12003KT 06/M00 A3041 RMK A01 T00571004  RH  065%=      5-min Rain = 0
KNH1 150103Z 12003KT 06/M00 A3041 RMK A01 T00571003  RH  065%=      5-min Rain = 0
KNH1 150104Z 12003KT 06/M00 A3041 RMK A01 T00571004  RH  065%=      5-min Rain = 0
KNH1 150105Z 12003KT 06/M00 A3041 RMK A01 T00571004  RH  064%=      5-min Rain = 0
KNH1 150106Z 12003KT 06/M01 A3041 RMK A01 T00571005  RH  064%=      5-min Rain = 0
KNH1 150107Z 12003KT 06/M01 A3041 RMK A01 T00571005  RH  064%=      5-min Rain = 0
KNH1 150108Z 12003KT 06/M01 A3041 RMK A01 T00571005  RH  064%=      5-min Rain = 0
KNH1 150109Z 12003KT 06/M01 A3041 RMK A01 T00561005  RH  065%=      5-min Rain = 0
KNH1 150110Z 12003KT 06/M01 A3041 RMK A01 T00561005  RH  065%=      5-min Rain = 0
KNH1 150111Z 12003KT 06/M00 A3041 RMK A01 T00561004  RH  065%=      5-min Rain = 0
KNH1 150112Z 13003KT 06/M01 A3041 RMK A01 T00561005  RH  065%=      5-min Rain = 0
KNH1 150113Z 12003KT 06/M01 A3041 RMK A01 T00561005  RH  065%=      5-min Rain = 0
KNH1 150114Z 13004KT 06/M01 A3041 RMK A01 T00561006  RH  064%=      5-min Rain = 0
KNH1 150115Z 13003KT 06/M01 A3041 RMK A01 T00571006  RH  064%=      5-min Rain = 0
KNH1 150116Z 13003KT 06/M01 A3041 RMK A01 T00571006  RH  064%=      5-min Rain = 0
KNH1 150117Z 12003KT 06/M01 A3041 RMK A01 T00571006  RH  064%=      5-min Rain = 0
KNH1 150118Z 12004KT 06/M01 A3041 RMK A01 T00571005  RH  064%=      5-min Rain = 0
KNH1 150119Z 12003KT 06/M01 A3041 RMK A01 T00571005  RH  065%=      5-min Rain = 0
KNH1 150120Z 12003KT 06/M00 A3041 RMK A01 T00561004  RH  065%=      5-min Rain = 0
KNH1 150121Z 12003KT 06/M00 A3041 RMK A01 T00561004  RH  066%=      5-min Rain = 0
KNH1 150122Z 12003KT 06/M01 A3041 RMK A01 T00551005  RH  065%=      5-min Rain = 0
KNH1 150123Z 12003KT 06/M01 A3041 RMK A01 T00551005  RH  065%=      5-min Rain = 0
KNH1 150124Z 12003KT 06/M01 A3041 RMK A01 T00551006  RH  065%=      5-min Rain = 0
KNH1 150125Z 13003KT 06/M01 A3041 RMK A01 T00551006  RH  065%=      5-min Rain = 0
KNH1 150126Z 13003KT 06/M01 A3041 RMK A01 T00551006  RH  065%=      5-min Rain = 0
KNH1 150127Z 12003KT 06/M01 A3041 RMK A01 T00551006  RH  065%=      5-min Rain = 0
KNH1 150128Z 12003KT 06/M01 A3041 RMK A01 T00551006  RH  065%=      5-min Rain = 0
KNH1 150129Z 12003KT 06/M01 A3041 RMK A01 T00551007  RH  064%=      5-min Rain = 0
KNH1 150130Z 12003KT 06/M01 A3041 RMK A01 T00551006  RH  064%=      5-min Rain = 0
KNH1 150131Z 12003KT 06/M01 A3041 RMK A01 T00551007  RH  064%=      5-min Rain = 0
KNH1 150132Z 12003KT 06/M01 A3041 RMK A01 T00551006  RH  064%=      5-min Rain = 0
KNH1 150133Z 12003KT 06/M01 A3041 RMK A01 T00551006  RH  065%=      5-min Rain = 0
KNH1 150134Z 11003KT 06/M01 A3041 RMK A01 T00551005  RH  065%=      5-min Rain = 0
KNH1 150135Z 11003KT 05/M01 A3041 RMK A01 T00541006  RH  065%=      5-min Rain = 0
KNH1 150136Z 10003KT 05/M01 A3041 RMK A01 T00531005  RH  066%=      5-min Rain = 0
KNH1 150137Z 11003KT 05/M00 A3041 RMK A01 T00521004  RH  067%=      5-min Rain = 0
KNH1 150138Z 11002KT 05/M01 A3041 RMK A01 T00511005  RH  067%=      5-min Rain = 0
KNH1 150139Z 11002KT 05/M00 A3041 RMK A01 T00501004  RH  068%=      5-min Rain = 0
KNH1 150140Z 11002KT 05/M01 A3041 RMK A01 T00491005  RH  068%=      5-min Rain = 0
KNH1 150141Z 11003KT 05/M01 A3042 RMK A01 T00491005  RH  068%=      5-min Rain = 0
KNH1 150142Z 11003KT 05/M01 A3042 RMK A01 T00481005  RH  069%=      5-min Rain = 0
KNH1 150143Z 11003KT 05/M01 A3042 RMK A01 T00471005  RH  069%=      5-min Rain = 0
KNH1 150144Z 11003KT 05/M01 A3042 RMK A01 T00471005  RH  069%=      5-min Rain = 0
KNH1 150145Z 11003KT 05/M01 A3042 RMK A01 T00471006  RH  068%=      5-min Rain = 0
KNH1 150146Z 11003KT 05/M01 A3042 RMK A01 T00481006  RH  068%=      5-min Rain = 0
KNH1 150147Z 11003KT 05/M01 A3042 RMK A01 T00481006  RH  068%=      5-min Rain = 0
KNH1 150148Z 12003KT 05/M01 A3042 RMK A01 T00491006  RH  067%=      5-min Rain = 0
KNH1 150149Z 12003KT 05/M01 A3042 RMK A01 T00501006  RH  067%=      5-min Rain = 0
KNH1 150150Z 12003KT 05/M01 A3042 RMK A01 T00501006  RH  067%=      5-min Rain = 0
KNH1 150151Z 12003KT 05/M01 A3042 RMK A01 T00511006  RH  067%=      5-min Rain = 0
KNH1 150152Z 12003KT 05/M01 A3042 RMK A01 T00511006  RH  066%=      5-min Rain = 0
KNH1 150153Z 12003KT 05/M01 A3042 RMK A01 T00521006  RH  066%=      5-min Rain = 0
KNH1 150154Z 12003KT 05/M01 A3042 RMK A01 T00521006  RH  066%=      5-min Rain = 0
KNH1 150155Z 12003KT 05/M01 A3042 RMK A01 T00521006  RH  066%=      5-min Rain = 0
KNH1 150156Z 12003KT 05/M01 A3042 RMK A01 T00511005  RH  067%=      5-min Rain = 0
KNH1 150157Z 12003KT 05/M01 A3042 RMK A01 T00511005  RH  067%=      5-min Rain = 0
KNH1 150158Z 12003KT 05/M01 A3042 RMK A01 T00501006  RH  067%=      5-min Rain = 0
KNH1 150159Z 12003KT 05/M01 A3042 RMK A01 T00501006  RH  067%=      5-min Rain = 0
KNH1 150200Z 12003KT 05/M01 A3042 RMK A01 T00501006  RH  067%=      5-min Rain = 0
KNH1 150201Z 12003KT 05/M01 A3042 RMK A01 T00491006  RH  067%=      5-min Rain = 0
KNH1 150202Z 13003KT 05/M01 A3042 RMK A01 T00491006  RH  067%=      5-min Rain = 0
KNH1 150203Z 12003KT 05/M01 A3042 RMK A01 T00491006  RH  068%=      5-min Rain = 0
KNH1 150204Z 12003KT 05/M01 A3042 RMK A01 T00491006  RH  068%=      5-min Rain = 0
KNH1 150205Z 12003KT 05/M01 A3042 RMK A01 T00491006  RH  068%=      5-min Rain = 0
KNH1 150206Z 12003KT 05/M01 A3042 RMK A01 T00491006  RH  068%=      5-min Rain = 0
KNH1 150207Z 12003KT 05/M01 A3042 RMK A01 T00491006  RH  068%=      5-min Rain = 0
KNH1 150208Z 11003KT 05/M01 A3042 RMK A01 T00491005  RH  068%=      5-min Rain = 0
KNH1 150209Z 11003KT 05/M00 A3042 RMK A01 T00491004  RH  069%=      5-min Rain = 0
KNH1 150210Z 11003KT 05/M00 A3042 RMK A01 T00481004  RH  069%=      5-min Rain = 0
KNH1 150211Z 11003KT 05/M00 A3042 RMK A01 T00481004  RH  069%=      5-min Rain = 0
KNH1 150212Z 11004KT 05/M00 A3042 RMK A01 T00471004  RH  069%=      5-min Rain = 0
KNH1 150213Z 11003KT 05/M00 A3042 RMK A01 T00471004  RH  069%=      5-min Rain = 0
KNH1 150214Z 11004KT 05/M00 A3042 RMK A01 T00471004  RH  069%=      5-min Rain = 0
KNH1 150215Z 11003KT 05/M00 A3042 RMK A01 T00471004  RH  069%=      5-min Rain = 0
KNH1 150216Z 11004KT 05/M01 A3042 RMK A01 T00461005  RH  070%=      5-min Rain = 0
KNH1 150217Z 11003KT 05/M01 A3042 RMK A01 T00461005  RH  070%=      5-min Rain = 0
KNH1 150218Z 11004KT 05/M01 A3042 RMK A01 T00451005  RH  070%=      5-min Rain = 0
KNH1 150219Z 14003KT 05/M01 A3042 RMK A01 T00451005  RH  070%=      5-min Rain = 0
KNH1 150220Z 12003KT 05/M01 A3042 RMK A01 T00451005  RH  070%=      5-min Rain = 0
KNH1 150221Z 13003KT 04/M01 A3042 RMK A01 T00441006  RH  070%=      5-min Rain = 0
KNH1 150222Z 13004KT 04/M01 A3042 RMK A01 T00441006  RH  070%=      5-min Rain = 0
KNH1 150223Z 14003KT 04/M01 A3042 RMK A01 T00441007  RH  070%=      5-min Rain = 0
KNH1 150224Z 14003KT 04/M01 A3042 RMK A01 T00441006  RH  070%=      5-min Rain = 0
KNH1 150225Z 15003KT 04/M01 A3042 RMK A01 T00431007  RH  070%=      5-min Rain = 0
KNH1 150226Z 15003KT 04/M01 A3042 RMK A01 T00431007  RH  070%=      5-min Rain = 0
KNH1 150227Z 16003KT 04/M01 A3042 RMK A01 T00421007  RH  070%=      5-min Rain = 0
KNH1 150228Z 16003KT 04/M01 A3042 RMK A01 T00411007  RH  071%=      5-min Rain = 0
KNH1 150229Z 15003KT 04/M01 A3043 RMK A01 T00401007  RH  071%=      5-min Rain = 0
KNH1 150230Z 15003KT 04/M01 A3043 RMK A01 T00401007  RH  071%=      5-min Rain = 0
KNH1 150231Z 15003KT 04/M01 A3043 RMK A01 T00401007  RH  071%=      5-min Rain = 0
KNH1 150232Z 15003KT 04/M01 A3043 RMK A01 T00401006  RH  072%=      5-min Rain = 0
KNH1 150233Z 15003KT 04/M01 A3043 RMK A01 T00401006  RH  072%=      5-min Rain = 0
KNH1 150234Z 15003KT 04/M01 A3043 RMK A01 T00401006  RH  072%=      5-min Rain = 0
KNH1 150235Z 15003KT 04/M01 A3043 RMK A01 T00391006  RH  072%=      5-min Rain = 0
KNH1 150236Z 15003KT 04/M01 A3043 RMK A01 T00391006  RH  072%=      5-min Rain = 0
KNH1 150237Z 15003KT 04/M01 A3043 RMK A01 T00391006  RH  073%=      5-min Rain = 0
KNH1 150238Z 14003KT 04/M01 A3043 RMK A01 T00391005  RH  073%=      5-min Rain = 0
KNH1 150239Z 15003KT 04/M01 A3043 RMK A01 T00391005  RH  073%=      5-min Rain = 0
KNH1 150240Z 15003KT 04/M01 A3043 RMK A01 T00391005  RH  073%=      5-min Rain = 0
KNH1 150241Z 15002KT 04/M01 A3043 RMK A01 T00391005  RH  073%=      5-min Rain = 0
KNH1 150242Z 15002KT 04/M01 A3043 RMK A01 T00391005  RH  073%=      5-min Rain = 0
KNH1 150243Z 15003KT 04/M01 A3043 RMK A01 T00391006  RH  073%=      5-min Rain = 0
KNH1 150244Z 14002KT 04/M01 A3043 RMK A01 T00391006  RH  073%=      5-min Rain = 0
KNH1 150245Z 15003KT 04/M01 A3043 RMK A01 T00381006  RH  073%=      5-min Rain = 0
KNH1 150246Z 15003KT 04/M01 A3043 RMK A01 T00381006  RH  073%=      5-min Rain = 0
KNH1 150247Z 15002KT 04/M01 A3043 RMK A01 T00381005  RH  073%=      5-min Rain = 0
KNH1 150248Z 15003KT 04/M01 A3043 RMK A01 T00381005  RH  073%=      5-min Rain = 0
KNH1 150249Z 15003KT 04/M01 A3043 RMK A01 T00381006  RH  073%=      5-min Rain = 0
KNH1 150250Z 15003KT 04/M01 A3043 RMK A01 T00381006  RH  073%=      5-min Rain = 0
KNH1 150251Z 15003KT 04/M01 A3043 RMK A01 T00381006  RH  073%=      5-min Rain = 0
KNH1 150252Z 15003KT 04/M01 A3043 RMK A01 T00381006  RH  073%=      5-min Rain = 0
KNH1 150253Z 15003KT 04/M01 A3043 RMK A01 T00381006  RH  073%=      5-min Rain = 0
KNH1 150254Z 15003KT 04/M01 A3043 RMK A01 T00391006  RH  072%=      5-min Rain = 0
KNH1 150255Z 15003KT 04/M01 A3043 RMK A01 T00391006  RH  072%=      5-min Rain = 0
KNH1 150256Z 14004KT 04/M01 A3043 RMK A01 T00401006  RH  072%=      5-min Rain = 0
KNH1 150257Z 14004KT 04/M01 A3043 RMK A01 T00401006  RH  072%=      5-min Rain = 0
KNH1 150258Z 14004KT 04/M01 A3043 RMK A01 T00411006  RH  072%=      5-min Rain = 0
KNH1 150259Z 14004KT 04/M01 A3043 RMK A01 T00411006  RH  072%=      5-min Rain = 0
KNH1 150300Z 13004KT 04/M01 A3043 RMK A01 T00411005  RH  072%=      5-min Rain = 0
KNH1 150301Z 13004KT 04/M01 A3043 RMK A01 T00411005  RH  072%=      5-min Rain = 0
KNH1 150302Z 13004KT 04/M01 A3043 RMK A01 T00401006  RH  072%=      5-min Rain = 0
KNH1 150303Z 13003KT 04/M01 A3043 RMK A01 T00401006  RH  072%=      5-min Rain = 0
KNH1 150304Z 13003KT 04/M01 A3043 RMK A01 T00391007  RH  072%=      5-min Rain = 0
KNH1 150305Z 14004KT 04/M01 A3043 RMK A01 T00391007  RH  072%=      5-min Rain = 0
KNH1 150306Z 14004KT 04/M01 A3043 RMK A01 T00391007  RH  072%=      5-min Rain = 0
KNH1 150307Z 14004KT 04/M01 A3043 RMK A01 T00391007  RH  072%=      5-min Rain = 0
KNH1 150308Z 14004KT 04/M01 A3043 RMK A01 T00391007  RH  072%=      5-min Rain = 0
KNH1 150309Z 14004KT 04/M01 A3043 RMK A01 T00391007  RH  072%=      5-min Rain = 0
KNH1 150310Z 14004KT 04/M01 A3043 RMK A01 T00391008  RH  072%=      5-min Rain = 0
KNH1 150311Z 15004KT 04/M01 A3043 RMK A01 T00391008  RH  072%=      5-min Rain = 0
KNH1 150312Z 15004KT 04/M01 A3043 RMK A01 T00391007  RH  071%=      5-min Rain = 0
KNH1 150313Z 15004KT 04/M01 A3043 RMK A01 T00401007  RH  071%=      5-min Rain = 0
KNH1 150314Z 15004KT 04/M01 A3043 RMK A01 T00411007  RH  071%=      5-min Rain = 0
KNH1 150315Z 15004KT 04/M01 A3043 RMK A01 T00421007  RH  071%=      5-min Rain = 0
KNH1 150316Z 15003KT 04/M01 A3043 RMK A01 T00421007  RH  070%=      5-min Rain = 0
KNH1 150317Z 14004KT 04/M01 A3043 RMK A01 T00421007  RH  070%=      5-min Rain = 0
KNH1 150318Z 15004KT 04/M01 A3043 RMK A01 T00421007  RH  070%=      5-min Rain = 0
KNH1 150319Z 15004KT 04/M01 A3043 RMK A01 T00421007  RH  070%=      5-min Rain = 0
KNH1 150320Z 14004KT 04/M01 A3043 RMK A01 T00421007  RH  070%=      5-min Rain = 0
KNH1 150321Z 15004KT 04/M01 A3044 RMK A01 T00421007  RH  070%=      5-min Rain = 0
KNH1 150322Z 14004KT 04/M01 A3044 RMK A01 T00411008  RH  070%=      5-min Rain = 0
KNH1 150323Z 15004KT 04/M01 A3044 RMK A01 T00411008  RH  070%=      5-min Rain = 0
KNH1 150324Z 15004KT 04/M01 A3044 RMK A01 T00411008  RH  071%=      5-min Rain = 0
KNH1 150325Z 15004KT 04/M01 A3044 RMK A01 T00401008  RH  071%=      5-min Rain = 0
KNH1 150326Z 15004KT 04/M01 A3044 RMK A01 T00411007  RH  071%=      5-min Rain = 0
KNH1 150327Z 15004KT 04/M01 A3044 RMK A01 T00401008  RH  071%=      5-min Rain = 0
KNH1 150328Z 15004KT 04/M01 A3044 RMK A01 T00401008  RH  071%=      5-min Rain = 0
KNH1 150329Z 15004KT 04/M01 A3044 RMK A01 T00401007  RH  071%=      5-min Rain = 0
KNH1 150330Z 15003KT 04/M01 A3044 RMK A01 T00401007  RH  071%=      5-min Rain = 0
KNH1 150331Z 15003KT 04/M01 A3044 RMK A01 T00401008  RH  071%=      5-min Rain = 0
KNH1 150332Z 15003KT 04/M01 A3044 RMK A01 T00401008  RH  071%=      5-min Rain = 0
KNH1 150333Z 15004KT 04/M01 A3044 RMK A01 T00401007  RH  071%=      5-min Rain = 0
KNH1 150334Z 15003KT 04/M01 A3044 RMK A01 T00391007  RH  072%=      5-min Rain = 0
KNH1 150335Z 15004KT 04/M01 A3044 RMK A01 T00391007  RH  072%=      5-min Rain = 0
KNH1 150336Z 15004KT 04/M01 A3044 RMK A01 T00391007  RH  072%=      5-min Rain = 0
KNH1 150337Z 16004KT 04/M01 A3044 RMK A01 T00381007  RH  072%=      5-min Rain = 0
KNH1 150338Z 15004KT 04/M01 A3044 RMK A01 T00381007  RH  072%=      5-min Rain = 0
KNH1 150339Z 16004KT 04/M01 A3044 RMK A01 T00391007  RH  072%=      5-min Rain = 0
KNH1 150340Z 15004KT 04/M01 A3044 RMK A01 T00391007  RH  072%=      5-min Rain = 0
KNH1 150341Z 15004KT 04/M01 A3044 RMK A01 T00401007  RH  072%=      5-min Rain = 0
KNH1 150342Z 15003KT 04/M01 A3044 RMK A01 T00391007  RH  072%=      5-min Rain = 0
KNH1 150343Z 15004KT 04/M01 A3044 RMK A01 T00391007  RH  072%=      5-min Rain = 0
KNH1 150344Z 15004KT 04/M01 A3044 RMK A01 T00391007  RH  072%=      5-min Rain = 0
KNH1 150345Z 15004KT 04/M01 A3044 RMK A01 T00391008  RH  071%=      5-min Rain = 0
KNH1 150346Z 15004KT 04/M01 A3044 RMK A01 T00391008  RH  071%=      5-min Rain = 0
KNH1 150347Z 15004KT 04/M01 A3044 RMK A01 T00401008  RH  071%=      5-min Rain = 0
KNH1 150348Z 15004KT 04/M01 A3044 RMK A01 T00401008  RH  071%=      5-min Rain = 0
KNH1 150349Z 15004KT 04/M01 A3044 RMK A01 T00401008  RH  071%=      5-min Rain = 0
KNH1 150350Z 15004KT 04/M01 A3044 RMK A01 T00411008  RH  071%=      5-min Rain = 0
KNH1 150351Z 15004KT 04/M01 A3044 RMK A01 T00401008  RH  071%=      5-min Rain = 0
KNH1 150352Z 16004KT 04/M01 A3044 RMK A01 T00401008  RH  071%=      5-min Rain = 0
KNH1 150353Z 16004KT 04/M01 A3044 RMK A01 T00401008  RH  071%=      5-min Rain = 0
KNH1 150354Z 16004KT 04/M01 A3044 RMK A01 T00401008  RH  071%=      5-min Rain = 0
KNH1 150355Z 15005KT 04/M01 A3044 RMK A01 T00401008  RH  071%=      5-min Rain = 0
KNH1 150356Z 15004KT 04/M01 A3044 RMK A01 T00401008  RH  071%=      5-min Rain = 0
KNH1 150357Z 15005KT 04/M01 A3044 RMK A01 T00401008  RH  071%=      5-min Rain = 0
KNH1 150358Z 16004KT 04/M01 A3044 RMK A01 T00401008  RH  071%=      5-min Rain = 0
KNH1 150359Z 16004KT 04/M01 A3044 RMK A01 T00411007  RH  071%=      5-min Rain = 0
KNH1 150400Z 16004KT 04/M01 A3044 RMK A01 T00411007  RH  071%=      5-min Rain = 0
KNH1 150401Z 16005KT 04/M01 A3044 RMK A01 T00401007  RH  071%=      5-min Rain = 0
KNH1 150402Z 16005KT 04/M01 A3044 RMK A01 T00401008  RH  071%=      5-min Rain = 0
KNH1 150403Z 16004KT 04/M01 A3044 RMK A01 T00401008  RH  071%=      5-min Rain = 0
KNH1 150404Z 15004KT 04/M01 A3044 RMK A01 T00401008  RH  071%=      5-min Rain = 0
KNH1 150405Z 15004KT 04/M01 A3044 RMK A01 T00391008  RH  071%=      5-min Rain = 0
KNH1 150406Z 15004KT 04/M01 A3044 RMK A01 T00381009  RH  072%=      5-min Rain = 0
KNH1 150407Z 15004KT 04/M01 A3044 RMK A01 T00371009  RH  072%=      5-min Rain = 0
KNH1 150408Z 15004KT 04/M01 A3044 RMK A01 T00361009  RH  072%=      5-min Rain = 0
KNH1 150409Z 15005KT 04/M01 A3044 RMK A01 T00361008  RH  073%=      5-min Rain = 0
KNH1 150410Z 16005KT 04/M01 A3044 RMK A01 T00361008  RH  073%=      5-min Rain = 0
KNH1 150411Z 15005KT 04/M01 A3044 RMK A01 T00351008  RH  073%=      5-min Rain = 0
KNH1 150412Z 16005KT 04/M01 A3044 RMK A01 T00361008  RH  073%=      5-min Rain = 0
KNH1 150413Z 16005KT 04/M01 A3044 RMK A01 T00361008  RH  073%=      5-min Rain = 0
KNH1 150414Z 16005KT 04/M01 A3044 RMK A01 T00351008  RH  073%=      5-min Rain = 0
KNH1 150415Z 16005KT 04/M01 A3044 RMK A01 T00351008  RH  073%=      5-min Rain = 0
KNH1 150416Z 17005KT 04/M01 A3044 RMK A01 T00361008  RH  073%=      5-min Rain = 0
KNH1 150417Z 17005KT 04/M01 A3044 RMK A01 T00361008  RH  073%=      5-min Rain = 0
KNH1 150418Z 17005KT 04/M01 A3044 RMK A01 T00371008  RH  072%=      5-min Rain = 0
KNH1 150419Z 17005KT 04/M01 A3044 RMK A01 T00371008  RH  072%=      5-min Rain = 0
KNH1 150420Z 17005KT 04/M01 A3044 RMK A01 T00371008  RH  072%=      5-min Rain = 0
KNH1 150421Z 18005KT 04/M01 A3044 RMK A01 T00361009  RH  073%=      5-min Rain = 0
KNH1 150422Z 18005KT 03/M01 A3044 RMK A01 T00341009  RH  073%=      5-min Rain = 0
KNH1 150423Z 18005KT 03/M01 A3044 RMK A01 T00321009  RH  074%=      5-min Rain = 0
KNH1 150424Z 18005KT 03/M01 A3044 RMK A01 T00311009  RH  075%=      5-min Rain = 0
KNH1 150425Z 18005KT 03/M01 A3044 RMK A01 T00291008  RH  076%=      5-min Rain = 0
KNH1 150426Z 18005KT 03/M01 A3044 RMK A01 T00291008  RH  077%=      5-min Rain = 0
KNH1 150427Z 18005KT 03/M01 A3045 RMK A01 T00291008  RH  077%=      5-min Rain = 0
KNH1 150428Z 18005KT 03/M01 A3045 RMK A01 T00281008  RH  077%=      5-min Rain = 0
KNH1 150429Z 18005KT 03/M01 A3045 RMK A01 T00281008  RH  078%=      5-min Rain = 0
KNH1 150430Z 18005KT 03/M01 A3044 RMK A01 T00271008  RH  078%=      5-min Rain = 0
KNH1 150431Z 18004KT 03/M01 A3044 RMK A01 T00271007  RH  078%=      5-min Rain = 0
KNH1 150432Z 18004KT 03/M01 A3044 RMK A01 T00271008  RH  078%=      5-min Rain = 0
KNH1 150433Z 18004KT 03/M01 A3044 RMK A01 T00271008  RH  078%=      5-min Rain = 0
KNH1 150434Z 18004KT 03/M01 A3044 RMK A01 T00271007  RH  078%=      5-min Rain = 0
KNH1 150435Z 18004KT 03/M01 A3044 RMK A01 T00281008  RH  078%=      5-min Rain = 0
KNH1 150436Z 19004KT 03/M01 A3044 RMK A01 T00281008  RH  077%=      5-min Rain = 0
KNH1 150437Z 19004KT 03/M01 A3044 RMK A01 T00281008  RH  077%=      5-min Rain = 0
KNH1 150438Z 19004KT 03/M01 A3044 RMK A01 T00261009  RH  078%=      5-min Rain = 0
KNH1 150439Z 19004KT 03/M01 A3044 RMK A01 T00251009  RH  078%=      5-min Rain = 0
KNH1 150440Z 19004KT 02/M01 A3044 RMK A01 T00241009  RH  079%=      5-min Rain = 0
KNH1 150441Z 19004KT 02/M01 A3045 RMK A01 T00241009  RH  079%=      5-min Rain = 0
KNH1 150442Z 19004KT 02/M01 A3045 RMK A01 T00231009  RH  079%=      5-min Rain = 0
KNH1 150443Z 19004KT 02/M01 A3044 RMK A01 T00231009  RH  079%=      5-min Rain = 0
KNH1 150444Z 19004KT 02/M01 A3044 RMK A01 T00241008  RH  079%=      5-min Rain = 0
KNH1 150445Z 19004KT 03/M01 A3044 RMK A01 T00251008  RH  079%=      5-min Rain = 0
KNH1 150446Z 19004KT 03/M01 A3044 RMK A01 T00251009  RH  078%=      5-min Rain = 0
KNH1 150447Z 19004KT 03/M01 A3044 RMK A01 T00251009  RH  078%=      5-min Rain = 0
KNH1 150448Z 20004KT 02/M01 A3044 RMK A01 T00241010  RH  079%=      5-min Rain = 0
KNH1 150449Z 20003KT 02/M01 A3044 RMK A01 T00231010  RH  079%=      5-min Rain = 0
KNH1 150450Z 19003KT 02/M01 A3044 RMK A01 T00221010  RH  079%=      5-min Rain = 0
KNH1 150451Z 20004KT 02/M01 A3044 RMK A01 T00221009  RH  080%=      5-min Rain = 0
KNH1 150452Z 20004KT 02/M01 A3044 RMK A01 T00221009  RH  080%=      5-min Rain = 0
KNH1 150453Z 20004KT 02/M01 A3044 RMK A01 T00221009  RH  080%=      5-min Rain = 0
KNH1 150454Z 20004KT 02/M01 A3044 RMK A01 T00231008  RH  080%=      5-min Rain = 0
KNH1 150455Z 20004KT 02/M01 A3044 RMK A01 T00231008  RH  080%=      5-min Rain = 0
KNH1 150456Z 20004KT 02/M01 A3044 RMK A01 T00241009  RH  079%=      5-min Rain = 0
KNH1 150457Z 19004KT 02/M01 A3044 RMK A01 T00241009  RH  079%=      5-min Rain = 0
KNH1 150458Z 19004KT 02/M01 A3044 RMK A01 T00241008  RH  079%=      5-min Rain = 0
KNH1 150459Z 19004KT 02/M01 A3044 RMK A01 T00241009  RH  079%=      5-min Rain = 0
KNH1 150500Z 19004KT 02/M01 A3044 RMK A01 T00241009  RH  079%=      5-min Rain = 0
KNH1 150501Z 19004KT 03/M01 A3044 RMK A01 T00251009  RH  079%=      5-min Rain = 0
KNH1 150502Z 19004KT 03/M01 A3044 RMK A01 T00261008  RH  078%=      5-min Rain = 0
KNH1 150503Z 19004KT 03/M01 A3044 RMK A01 T00261009  RH  078%=      5-min Rain = 0
KNH1 150504Z 19004KT 03/M01 A3044 RMK A01 T00261009  RH  078%=      5-min Rain = 0
KNH1 150505Z 19004KT 03/M01 A3044 RMK A01 T00261009  RH  078%=      5-min Rain = 0
KNH1 150506Z 19004KT 03/M01 A3044 RMK A01 T00261009  RH  078%=      5-min Rain = 0
KNH1 150507Z 19004KT 03/M01 A3044 RMK A01 T00261009  RH  078%=      5-min Rain = 0
KNH1 150508Z 19004KT 03/M01 A3044 RMK A01 T00261009  RH  078%=      5-min Rain = 0
KNH1 150509Z 20004KT 03/M01 A3044 RMK A01 T00261009  RH  078%=      5-min Rain = 0
KNH1 150510Z 20004KT 03/M01 A3044 RMK A01 T00271008  RH  078%=      5-min Rain = 0
KNH1 150511Z 20004KT 03/M01 A3044 RMK A01 T00261009  RH  078%=      5-min Rain = 0
KNH1 150512Z 20004KT 03/M01 A3044 RMK A01 T00261009  RH  078%=      5-min Rain = 0
KNH1 150513Z 19004KT 03/M01 A3044 RMK A01 T00261009  RH  078%=      5-min Rain = 0
KNH1 150514Z 19004KT 03/M01 A3044 RMK A01 T00261009  RH  078%=      5-min Rain = 0
KNH1 150515Z 19004KT 03/M01 A3044 RMK A01 T00261009  RH  078%=      5-min Rain = 0
KNH1 150516Z 19005KT 03/M01 A3044 RMK A01 T00281008  RH  077%=      5-min Rain = 0
KNH1 150517Z 20005KT 03/M01 A3044 RMK A01 T00291008  RH  077%=      5-min Rain = 0
KNH1 150518Z 20005KT 03/M01 A3045 RMK A01 T00291008  RH  077%=      5-min Rain = 0
KNH1 150519Z 20005KT 03/M01 A3045 RMK A01 T00291008  RH  077%=      5-min Rain = 0
KNH1 150520Z 20005KT 03/M01 A3045 RMK A01 T00281008  RH  077%=      5-min Rain = 0
KNH1 150521Z 20004KT 03/M01 A3044 RMK A01 T00271009  RH  077%=      5-min Rain = 0
KNH1 150522Z 20005KT 03/M01 A3044 RMK A01 T00261009  RH  078%=      5-min Rain = 0
KNH1 150523Z 20004KT 03/M01 A3044 RMK A01 T00251010  RH  078%=      5-min Rain = 0
KNH1 150524Z 20004KT 03/M01 A3045 RMK A01 T00251009  RH  078%=      5-min Rain = 0
KNH1 150525Z 20004KT 02/M01 A3045 RMK A01 T00241009  RH  078%=      5-min Rain = 0
KNH1 150526Z 21004KT 02/M01 A3045 RMK A01 T00241009  RH  079%=      5-min Rain = 0
KNH1 150527Z 21004KT 02/M01 A3045 RMK A01 T00241009  RH  078%=      5-min Rain = 0
KNH1 150528Z 21004KT 02/M01 A3045 RMK A01 T00241010  RH  078%=      5-min Rain = 0
KNH1 150529Z 21003KT 02/M01 A3045 RMK A01 T00231011  RH  078%=      5-min Rain = 0
KNH1 150530Z 21004KT 02/M01 A3045 RMK A01 T00221011  RH  079%=      5-min Rain = 0
KNH1 150531Z 20004KT 02/M01 A3045 RMK A01 T00211011  RH  079%=      5-min Rain = 0
KNH1 150532Z 20004KT 02/M01 A3045 RMK A01 T00201011  RH  080%=      5-min Rain = 0
KNH1 150533Z 20004KT 02/M01 A3044 RMK A01 T00191011  RH  080%=      5-min Rain = 0
KNH1 150534Z 20004KT 02/M01 A3044 RMK A01 T00191011  RH  081%=      5-min Rain = 0
KNH1 150535Z 20004KT 02/M01 A3044 RMK A01 T00191010  RH  081%=      5-min Rain = 0
KNH1 150536Z 20003KT 02/M01 A3044 RMK A01 T00191010  RH  081%=      5-min Rain = 0
KNH1 150537Z 21003KT 02/M01 A3044 RMK A01 T00191010  RH  081%=      5-min Rain = 0
KNH1 150538Z 21004KT 02/M01 A3044 RMK A01 T00191010  RH  081%=      5-min Rain = 0
KNH1 150539Z 20004KT 02/M01 A3044 RMK A01 T00191010  RH  081%=      5-min Rain = 0
KNH1 150540Z 20004KT 02/M01 A3044 RMK A01 T00191010  RH  081%=      5-min Rain = 0
KNH1 150541Z 20003KT 02/M01 A3044 RMK A01 T00201010  RH  081%=      5-min Rain = 0
KNH1 150542Z 20003KT 02/M01 A3044 RMK A01 T00191010  RH  081%=      5-min Rain = 0
KNH1 150543Z 20003KT 02/M01 A3044 RMK A01 T00191010  RH  081%=      5-min Rain = 0
KNH1 150544Z 20003KT 02/M01 A3044 RMK A01 T00191010  RH  081%=      5-min Rain = 0
KNH1 150545Z 20003KT 02/M01 A3044 RMK A01 T00201010  RH  081%=      5-min Rain = 0
KNH1 150546Z 20003KT 02/M01 A3044 RMK A01 T00201010  RH  081%=      5-min Rain = 0
KNH1 150547Z 20004KT 02/M01 A3044 RMK A01 T00211009  RH  081%=      5-min Rain = 0
KNH1 150548Z 20004KT 02/M01 A3044 RMK A01 T00221009  RH  080%=      5-min Rain = 0
KNH1 150549Z 20004KT 02/M01 A3044 RMK A01 T00231008  RH  080%=      5-min Rain = 0
KNH1 150550Z 21004KT 02/M01 A3044 RMK A01 T00231009  RH  080%=      5-min Rain = 0
KNH1 150551Z 21004KT 02/M01 A3044 RMK A01 T00221010  RH  079%=      5-min Rain = 0
KNH1 150552Z 22003KT 02/M01 A3044 RMK A01 T00211011  RH  079%=      5-min Rain = 0
KNH1 150553Z 22003KT 02/M01 A3044 RMK A01 T00201011  RH  080%=      5-min Rain = 0
KNH1 150554Z 22003KT 02/M01 A3044 RMK A01 T00191012  RH  080%=      5-min Rain = 0
KNH1 150555Z 22003KT 02/M01 A3044 RMK A01 T00181013  RH  080%=      5-min Rain = 0
KNH1 150556Z 23003KT 02/M01 A3044 RMK A01 T00171012  RH  081%=      5-min Rain = 0
KNH1 150557Z 23003KT 02/M01 A3044 RMK A01 T00161013  RH  081%=      5-min Rain = 0
KNH1 150558Z 23003KT 02/M01 A3044 RMK A01 T00151013  RH  082%=      5-min Rain = 0
KNH1 150559Z 24002KT 01/M01 A3044 RMK A01 T00141014  RH  082%=      5-min Rain = 0

Page generated in 0.0762 seconds.